FW3681 Weather Reports


Display with metric or nautical units.
time (UTC)temp
F
wind
direction
speed
MPH
gust
MPH
rain 1hr
in
rain 24hr
in
rain mn
in
humidity
%
barometer
mb
20260831085156 75 85 2.0 3.0 0.00 0.00 0.00 87 1017.3
20260831085056 75 342 0.0 3.0 0.00 0.00 0.00 87 1017.4
20260831084856 75 18 0.0 3.0 0.00 0.00 0.00 87 1017.4
20260831084756 75 48 0.0 3.0 0.00 0.00 0.00 87 1017.4
20260831084556 75 356 1.0 3.0 0.00 0.00 0.00 87 1017.4
20260831084457 75 20 2.0 3.0 0.00 0.00 0.00 87 1017.4
20260831084356 75 360 2.0 4.0 0.00 0.00 0.00 87 1017.3
20260831084256 75 354 0.0 4.0 0.00 0.00 0.00 87 1017.4
20260831084156 75 338 2.0 4.0 0.00 0.00 0.00 87 1017.4
20260831084056 75 65 0.0 4.0 0.00 0.00 0.00 87 1017.4
20260831084000 75 328 0.0 4.0 0.00 0.00 0.00 87 1017.3
20260831083756 75 356 1.0 4.0 0.00 0.00 0.00 87 1017.4
20260831083656 75 13 2.0 4.0 0.00 0.00 0.00 87 1017.4
20260831083556 75 4 3.0 3.0 0.00 0.00 0.00 87 1017.3
20260831083457 75 1 2.0 3.0 0.00 0.00 0.00 87 1017.4
20260831083356 75 360 2.0 3.0 0.00 0.00 0.00 87 1017.2
20260831083256 75 340 2.0 3.0 0.00 0.00 0.00 87 1017.3
20260831083157 75 337 1.0 3.0 0.00 0.00 0.00 87 1017.3
20260831083057 75 323 0.0 3.0 0.00 0.00 0.00 87 1017.3
20260831083000 75 70 0.0 3.0 0.00 0.00 0.00 87 1017.2
20260831082857 75 60 0.0 3.0 0.00 0.00 0.00 87 1017.2
20260831082758 75 349 2.0 3.0 0.00 0.00 0.00 87 1017.2
20260831082658 75 300 1.0 3.0 0.00 0.00 0.00 87 1017.1
20260831082556 75 316 0.0 3.0 0.00 0.00 0.00 87 1017.1
20260831082457 75 360 0.0 3.0 0.00 0.00 0.00 87 1017.2
20260831082357 75 20 1.0 3.0 0.00 0.00 0.00 87 1017.2
20260831082157 75 127 0.0 3.0 0.00 0.00 0.00 87 1017.2
20260831082056 75 127 0.0 3.0 0.00 0.00 0.00 87 1017.3
20260831081856 75 11 0.0 3.0 0.00 0.00 0.00 86 1017.2
20260831081757 75 333 1.0 3.0 0.00 0.00 0.00 86 1017.3
20260831081557 75 328 2.0 3.0 0.00 0.00 0.00 86 1017.3
20260831081458 75 139 1.0 3.0 0.00 0.00 0.00 86 1017.3
20260831081357 75 358 2.0 3.0 0.00 0.00 0.00 86 1017.2
20260831081257 75 8 1.0 4.0 0.00 0.00 0.00 86 1017.3
20260831081156 75 337 1.0 4.0 0.00 0.00 0.00 86 1017.3
20260831081057 75 340 1.0 4.0 0.00 0.00 0.00 86 1017.3
20260831080959 75 328 0.0 4.0 0.00 0.00 0.00 86 1017.4
20260831080857 75 317 0.0 4.0 0.00 0.00 0.00 86 1017.4
20260831080757 75 304 0.0 4.0 0.00 0.00 0.00 86 1017.4
20260831080556 75 333 0.0 4.0 0.00 0.00 0.00 86 1017.4
20260831080457 75 337 2.0 4.0 0.00 0.00 0.00 86 1017.4
20260831080257 75 349 3.0 3.0 0.00 0.00 0.00 86 1017.3
20260831080057 75 352 3.0 3.0 0.00 0.00 0.00 86 1017.3
20260831075958 75 356 1.0 4.0 0.00 0.00 0.00 86 1017.3
20260831075857 76 347 2.0 4.0 0.00 0.00 0.00 86 1017.3
20260831075756 76 137 0.0 4.0 0.00 0.00 0.00 86 1017.2
20260831075656 76 333 1.0 4.0 0.00 0.00 0.00 86 1017.3
20260831075556 76 345 1.0 4.0 0.00 0.00 0.00 86 1017.3
20260831075457 76 328 2.0 4.0 0.00 0.00 0.00 86 1017.3
20260831075357 76 330 3.0 5.0 0.00 0.00 0.00 85 1017.3
20260831075157 76 355 3.0 5.0 0.00 0.00 0.00 85 1017.4
20260831075056 76 349 3.0 5.0 0.00 0.00 0.00 85 1017.4
20260831075000 76 316 0.0 5.0 0.00 0.00 0.00 85 1017.4
20260831074856 76 3 2.0 5.0 0.00 0.00 0.00 85 1017.5
20260831074756 76 359 2.0 5.0 0.00 0.00 0.00 85 1017.4
20260831074656 76 85 2.0 5.0 0.00 0.00 0.00 85 1017.4
20260831074555 76 338 2.0 5.0 0.00 0.00 0.00 85 1017.4
20260831074457 76 303 0.0 4.0 0.00 0.00 0.00 85 1017.5
20260831073857 76 304 1.0 4.0 0.00 0.00 0.00 85 1017.4
20260831073758 76 326 0.0 4.0 0.00 0.00 0.00 85 1017.4
20260831073556 76 321 2.0 3.0 0.00 0.00 0.00 85 1017.4
20260831073357 76 342 1.0 3.0 0.00 0.00 0.00 85 1017.4
20260831073256 76 347 0.0 3.0 0.00 0.00 0.00 85 1017.3
20260831073156 76 360 3.0 3.0 0.00 0.00 0.00 85 1017.4
20260831073056 76 326 2.0 3.0 0.00 0.00 0.00 85 1017.4
20260831072959 76 340 2.0 3.0 0.00 0.00 0.00 85 1017.3
20260831072855 76 337 3.0 3.0 0.00 0.00 0.00 85 1017.4
20260831072756 76 328 2.0 3.0 0.00 0.00 0.00 85 1017.3
20260831072657 76 340 0.0 3.0 0.00 0.00 0.00 85 1017.3
20260831072556 76 345 2.0 3.0 0.00 0.00 0.00 85 1017.3
20260831072459 76 333 0.0 3.0 0.00 0.00 0.00 85 1017.3
20260831072356 76 349 1.0 3.0 0.00 0.00 0.00 85 1017.3
20260831072256 76 6 3.0 3.0 0.00 0.00 0.00 85 1017.3
20260831072157 76 340 2.0 3.0 0.00 0.00 0.00 85 1017.3
20260831072056 76 309 3.0 3.0 0.00 0.00 0.00 85 1017.4
20260831072000 76 354 2.0 3.0 0.00 0.00 0.00 85 1017.3
20260831071857 76 330 0.0 3.0 0.00 0.00 0.00 85 1017.4
20260831071757 76 337 0.0 3.0 0.00 0.00 0.00 85 1017.4
20260831071656 76 338 2.0 3.0 0.00 0.00 0.00 85 1017.3
20260831071556 76 354 2.0 3.0 0.00 0.00 0.00 85 1017.4
20260831071458 76 349 2.0 3.0 0.00 0.00 0.00 85 1017.4
20260831071356 76 346 1.0 3.0 0.00 0.00 0.00 85 1017.4
20260831071156 76 342 2.0 4.0 0.00 0.00 0.00 84 1017.4
20260831071057 76 323 2.0 4.0 0.00 0.00 0.00 84 1017.4
20260831071000 76 347 2.0 4.0 0.00 0.00 0.00 84 1017.3
20260831070857 76 338 2.0 4.0 0.00 0.00 0.00 84 1017.3
20260831070656 76 342 2.0 4.0 0.00 0.00 0.00 84 1017.4
20260831070556 76 340 1.0 4.0 0.00 0.00 0.00 84 1017.3
20260831070458 76 338 2.0 4.0 0.00 0.00 0.00 84 1017.4
20260831070357 76 13 3.0 4.0 0.00 0.00 0.00 84 1017.4
20260831070257 76 352 0.0 3.0 0.00 0.00 0.00 84 1017.3
20260831070155 76 356 3.0 3.0 0.00 0.00 0.00 84 1017.4
20260831070057 76 360 3.0 3.0 0.00 0.00 0.00 84 1017.4
20260831070002 76 19 0.0 3.0 0.00 0.00 0.00 84 1017.4
20260831065857 76 300 0.0 3.0 0.00 0.00 0.00 84 1017.5
20260831065756 76 316 0.0 3.0 0.00 0.00 0.00 84 1017.6
20260831065656 76 300 2.0 3.0 0.00 0.00 0.00 84 1017.5
20260831065555 76 316 1.0 3.0 0.00 0.00 0.00 84 1017.5
20260831065458 76 333 2.0 3.0 0.00 0.00 0.00 84 1017.5
20260831065155 76 321 2.0 3.0 0.00 0.00 0.00 84 1017.5
20260831065055 76 314 3.0 3.0 0.00 0.00 0.00 84 1017.5
20260831064959 76 340 1.0 3.0 0.00 0.00 0.00 84 1017.5
20260831064856 76 328 3.0 3.0 0.00 0.00 0.00 84 1017.6
20260831064755 76 319 2.0 3.0 0.00 0.00 0.00 84 1017.6
20260831064656 76 335 3.0 3.0 0.00 0.00 0.00 84 1017.6
20260831064555 76 338 2.0 3.0 0.00 0.00 0.00 84 1017.5
20260831064458 76 349 2.0 3.0 0.00 0.00 0.00 84 1017.5
20260831064356 76 328 2.0 3.0 0.00 0.00 0.00 84 1017.5
20260831064256 76 319 2.0 3.0 0.00 0.00 0.00 84 1017.6
20260831064156 76 286 3.0 3.0 0.00 0.00 0.00 84 1017.5
20260831063857 76 360 2.0 3.0 0.00 0.00 0.00 84 1017.6
20260831063756 76 323 1.0 3.0 0.00 0.00 0.00 84 1017.6
20260831063657 76 337 2.0 3.0 0.00 0.00 0.00 84 1017.5
20260831063557 76 345 2.0 3.0 0.00 0.00 0.00 84 1017.6
20260831063457 77 344 2.0 3.0 0.00 0.00 0.00 84 1017.5
20260831063356 77 342 2.0 3.0 0.00 0.00 0.00 84 1017.5
20260831063257 77 342 0.0 3.0 0.00 0.00 0.00 84 1017.6
20260831063157 77 349 2.0 3.0 0.00 0.00 0.00 84 1017.6
20260831063057 77 331 1.0 3.0 0.00 0.00 0.00 84 1017.7
20260831063000 77 333 0.0 3.0 0.00 0.00 0.00 83 1017.6
20260831062858 77 311 2.0 3.0 0.00 0.00 0.00 83 1017.7
20260831062756 77 345 2.0 3.0 0.00 0.00 0.00 83 1017.7
20260831062658 77 8 2.0 3.0 0.00 0.00 0.00 83 1017.7
20260831062357 77 317 0.0 2.0 0.00 0.00 0.00 83 1017.7
20260831062157 77 317 0.0 3.0 0.00 0.00 0.00 83 1017.7
20260831061959 77 335 2.0 3.0 0.00 0.00 0.00 83 1017.6
20260831061856 77 333 0.0 3.0 0.00 0.00 0.00 83 1017.6
20260831061757 77 330 2.0 3.0 0.00 0.00 0.00 83 1017.5
20260831061557 77 310 0.0 3.0 0.00 0.00 0.00 83 1017.6
20260831061457 77 349 2.0 3.0 0.00 0.00 0.00 83 1017.6
20260831061355 77 333 0.0 3.0 0.00 0.00 0.00 83 1017.6
20260831061255 77 25 1.0 3.0 0.00 0.00 0.00 83 1017.6
20260831061056 77 360 0.0 3.0 0.00 0.00 0.00 83 1017.5
20260831060756 77 20 2.0 3.0 0.00 0.00 0.00 83 1017.5
20260831060556 77 335 2.0 3.0 0.00 0.00 0.00 83 1017.5
20260831060457 77 323 1.0 2.0 0.00 0.00 0.00 83 1017.6
20260831060356 77 342 0.0 2.0 0.00 0.00 0.00 83 1017.5
20260831060156 77 345 0.0 2.0 0.00 0.00 0.00 83 1017.5
20260831060059 77 329 0.0 3.0 0.00 0.00 0.00 83 1017.5
20260831060002 77 294 1.0 3.0 0.00 0.00 0.00 83 1017.4
20260831055857 77 340 0.0 3.0 0.00 0.00 0.00 83 1017.5
20260831055757 77 321 1.0 3.0 0.00 0.00 0.00 83 1017.4
20260831055556 77 356 0.0 3.0 0.00 0.00 0.00 83 1017.4
20260831055355 77 360 0.0 3.0 0.00 0.00 0.00 83 1017.4
20260831055258 77 331 2.0 3.0 0.00 0.00 0.00 83 1017.4
20260831055157 77 22 0.0 3.0 0.00 0.00 0.00 83 1017.5
20260831055056 77 25 3.0 3.0 0.00 0.00 0.00 83 1017.5
20260831054958 77 25 1.0 3.0 0.00 0.00 0.00 82 1017.6
20260831054856 77 353 1.0 3.0 0.00 0.00 0.00 82 1017.5
20260831054756 77 6 1.0 3.0 0.00 0.00 0.00 82 1017.6
20260831054656 77 333 2.0 3.0 0.00 0.00 0.00 83 1017.6
20260831054556 77 328 0.0 3.0 0.00 0.00 0.00 82 1017.6
20260831054357 77 353 0.0 3.0 0.00 0.00 0.00 82 1017.6
20260831054257 77 358 1.0 3.0 0.00 0.00 0.00 82 1017.6
20260831054156 77 323 0.0 3.0 0.00 0.00 0.00 82 1017.7
20260831054057 77 360 0.0 3.0 0.00 0.00 0.00 82 1017.7
20260831053959 77 342 1.0 3.0 0.00 0.00 0.00 82 1017.7
20260831053856 77 345 2.0 3.0 0.00 0.00 0.00 82 1017.7
20260831053757 77 358 0.0 3.0 0.00 0.00 0.00 82 1017.7
20260831053655 77 328 2.0 3.0 0.00 0.00 0.00 82 1017.7
20260831053457 77 342 2.0 3.0 0.00 0.00 0.00 82 1017.6
20260831053356 77 338 1.0 3.0 0.00 0.00 0.00 82 1017.6
20260831053157 77 340 0.0 3.0 0.00 0.00 0.00 82 1017.6
20260831053057 77 20 0.0 3.0 0.00 0.00 0.00 82 1017.6
20260831052959 77 356 0.0 3.0 0.00 0.00 0.00 82 1017.5
20260831052856 77 319 1.0 3.0 0.00 0.00 0.00 82 1017.5
20260831052756 77 338 0.0 3.0 0.00 0.00 0.00 82 1017.6
20260831052459 77 336 1.0 3.0 0.00 0.00 0.00 82 1017.6
20260831052357 77 335 3.0 3.0 0.00 0.00 0.00 82 1017.6
20260831052056 77 344 3.0 3.0 0.00 0.00 0.00 82 1017.5
20260831052000 77 321 0.0 3.0 0.00 0.00 0.00 82 1017.7
20260831051758 77 352 2.0 3.0 0.00 0.00 0.00 81 1017.6
20260831051657 77 326 2.0 3.0 0.00 0.00 0.00 81 1017.6
20260831051556 77 347 2.0 3.0 0.00 0.00 0.00 81 1017.6
20260831051357 77 338 0.0 3.0 0.00 0.00 0.00 81 1017.7
20260831051256 77 316 2.0 3.0 0.00 0.00 0.00 81 1017.7
20260831051157 77 333 2.0 3.0 0.00 0.00 0.00 81 1017.6
20260831051056 77 356 3.0 3.0 0.00 0.00 0.00 81 1017.6
20260831051000 77 330 2.0 3.0 0.00 0.00 0.00 81 1017.6
20260831050857 77 345 2.0 3.0 0.00 0.00 0.00 81 1017.6
20260831050756 77 347 2.0 3.0 0.00 0.00 0.00 81 1017.6
20260831050656 77 328 0.0 3.0 0.00 0.00 0.00 81 1017.5
20260831050557 77 329 2.0 3.0 0.00 0.00 0.00 81 1017.5
20260831050357 77 338 2.0 4.0 0.00 0.00 0.00 81 1017.5
20260831050258 77 359 2.0 4.0 0.00 0.00 0.00 81 1017.6
20260831050157 77 330 2.0 4.0 0.00 0.00 0.00 81 1017.6
20260831050057 77 347 2.0 4.0 0.00 0.00 0.00 81 1017.6
20260831050004 78 351 2.0 4.0 0.00 0.00 0.00 81 1017.5
20260831045900 78 87 0.0 4.0 0.00 0.00 0.00 81 1017.6
20260831045758 78 347 2.0 4.0 0.00 0.00 0.00 81 1017.6
20260831045559 78 3 3.0 4.0 0.00 0.00 0.00 81 1017.6
20260831045503 77 338 2.0 3.0 0.00 0.00 0.00 81 1017.6
20260831045400 78 352 2.0 3.0 0.00 0.00 0.00 81 1017.7
20260831045259 78 356 2.0 3.0 0.00 0.00 0.00 81 1017.7
20260831045159 78 344 1.0 3.0 0.00 0.00 0.00 81 1017.6
20260831045100 78 331 0.0 3.0 0.00 0.00 0.00 81 1017.6
20260831045005 78 356 2.0 3.0 0.00 0.00 0.00 81 1017.6
20260831044859 78 323 0.0 3.0 0.00 0.00 0.00 81 1017.6
20260831044700 78 335 0.0 3.0 0.00 0.00 0.00 80 1017.6
20260831044559 78 335 2.0 3.0 0.00 0.00 0.00 80 1017.6
20260831044501 78 307 1.0 3.0 0.00 0.00 0.00 80 1017.7
20260831044158 78 337 2.0 3.0 0.00 0.00 0.00 80 1017.7
20260831044100 78 335 2.0 3.0 0.00 0.00 0.00 80 1017.7
20260831044004 78 335 0.0 3.0 0.00 0.00 0.00 80 1017.7
20260831043859 78 347 0.0 3.0 0.00 0.00 0.00 80 1017.7
20260831043800 78 39 2.0 3.0 0.00 0.00 0.00 80 1017.7
20260831043501 78 336 2.0 3.0 0.00 0.00 0.00 80 1017.7
20260831043300 78 20 0.0 3.0 0.00 0.00 0.00 80 1017.7
20260831043003 78 338 0.0 3.0 0.00 0.00 0.00 80 1017.6
20260831042859 78 342 2.0 3.0 0.00 0.00 0.00 80 1017.6
20260831042600 78 312 0.0 3.0 0.00 0.00 0.00 80 1017.6
20260831042503 78 359 0.0 3.0 0.00 0.00 0.00 80 1017.6
20260831042400 78 351 1.0 3.0 0.00 0.00 0.00 80 1017.6
20260831042259 78 349 2.0 3.0 0.00 0.00 0.00 80 1017.6
20260831042200 78 323 1.0 3.0 0.00 0.00 0.00 80 1017.6
20260831042059 78 8 3.0 3.0 0.00 0.00 0.00 80 1017.6
20260831042005 78 312 0.0 3.0 0.00 0.00 0.00 80 1017.6
20260831041900 78 335 0.0 3.0 0.00 0.00 0.00 80 1017.6
20260831041800 78 352 2.0 3.0 0.00 0.00 0.00 80 1017.6
20260831041700 78 333 1.0 3.0 0.00 0.00 0.00 80 1017.6
20260831041504 78 340 2.0 3.0 0.00 0.00 0.00 80 1017.7
20260831041400 78 356 3.0 3.0 0.00 0.00 0.00 80 1017.6
20260831041259 78 330 2.0 3.0 0.00 0.00 0.00 80 1017.7
20260831041159 78 303 0.0 3.0 0.00 0.00 0.00 80 1017.7
20260831041004 78 294 0.0 3.0 0.00 0.00 0.00 79 1017.6
20260831040801 78 321 2.0 3.0 0.00 0.00 0.00 79 1017.7
20260831040659 78 302 2.0 3.0 0.00 0.00 0.00 79 1017.8
20260831040600 78 352 0.0 3.0 0.00 0.00 0.00 79 1017.8
20260831040500 78 323 0.0 3.0 0.00 0.00 0.00 79 1017.7
20260831040359 78 354 2.0 3.0 0.00 0.00 0.00 79 1017.8
20260831040259 78 305 2.0 3.0 0.00 0.00 0.00 79 1017.8
20260831040100 78 352 3.0 3.0 0.00 0.00 0.00 79 1017.7
20260831040004 78 43 0.0 3.0 0.00 0.00 0.00 79 1017.8
20260831035858 78 43 0.0 3.0 0.00 0.00 0.00 79 1017.8
20260831035758 78 344 1.0 3.0 0.00 0.00 0.00 79 1017.9
20260831035657 78 358 0.0 3.0 0.00 0.00 0.00 79 1017.9
20260831035600 78 285 0.0 3.0 0.00 0.00 0.00 79 1017.9
20260831035500 78 316 0.0 3.0 0.00 0.00 0.00 79 1017.9
20260831035358 78 359 0.0 3.0 0.00 0.00 0.00 79 1017.9
20260831035159 78 312 2.0 3.0 0.00 0.00 0.00 79 1017.9
20260831034858 78 303 2.0 3.0 0.00 0.00 0.00 79 1017.9
20260831034758 78 304 1.0 3.0 0.00 0.00 0.00 79 1017.9
20260831034658 78 328 2.0 3.0 0.00 0.00 0.00 79 1017.9
20260831034559 78 331 0.0 3.0 0.00 0.00 0.00 79 1017.9
20260831034500 78 347 0.0 3.0 0.00 0.00 0.00 79 1017.9
20260831034400 78 282 2.0 3.0 0.00 0.00 0.00 79 1017.8
20260831034258 78 328 1.0 3.0 0.00 0.00 0.00 79 1017.9
20260831034158 78 331 2.0 3.0 0.00 0.00 0.00 79 1017.8
20260831034059 78 295 1.0 3.0 0.00 0.00 0.00 79 1017.9
20260831034004 78 321 1.0 3.0 0.00 0.00 0.00 79 1017.9
20260831033858 78 310 1.0 3.0 0.00 0.00 0.00 79 1017.8
20260831033758 79 328 2.0 3.0 0.00 0.00 0.00 79 1017.8
20260831033658 79 326 1.0 3.0 0.00 0.00 0.00 79 1017.9
20260831033600 79 314 2.0 3.0 0.00 0.00 0.00 79 1017.9
20260831033500 79 314 2.0 3.0 0.00 0.00 0.00 79 1017.9
20260831033259 79 328 1.0 3.0 0.00 0.00 0.00 79 1018.0
20260831033003 79 321 2.0 3.0 0.00 0.00 0.00 79 1017.9
20260831032858 79 328 2.0 3.0 0.00 0.00 0.00 79 1017.9
20260831032759 79 310 2.0 3.0 0.00 0.00 0.00 78 1017.9
20260831032659 79 335 2.0 3.0 0.00 0.00 0.00 78 1017.9
20260831032602 79 319 2.0 3.0 0.00 0.00 0.00 78 1017.9
20260831032506 79 333 2.0 3.0 0.00 0.00 0.00 78 1017.9
20260831032259 79 323 1.0 3.0 0.00 0.00 0.00 78 1017.9
20260831032159 79 333 2.0 3.0 0.00 0.00 0.00 78 1017.9
20260831032004 79 333 0.0 3.0 0.00 0.00 0.00 78 1017.9
20260831031800 79 314 2.0 3.0 0.00 0.00 0.00 78 1017.8
20260831031701 79 347 3.0 3.0 0.00 0.00 0.00 78 1017.8
20260831031600 79 106 0.0 3.0 0.00 0.00 0.00 78 1017.8
20260831031502 79 26 3.0 3.0 0.00 0.00 0.00 78 1017.9
20260831031400 79 338 1.0 3.0 0.00 0.00 0.00 78 1017.9
20260831031300 79 310 0.0 3.0 0.00 0.00 0.00 78 1017.9
20260831031159 79 319 1.0 3.0 0.00 0.00 0.00 78 1017.9
20260831031100 79 312 1.0 3.0 0.00 0.00 0.00 78 1017.9
20260831031005 79 300 1.0 3.0 0.00 0.00 0.00 78 1017.9
20260831030900 79 142 0.0 4.0 0.00 0.00 0.00 78 1018.0
20260831030759 79 304 0.0 4.0 0.00 0.00 0.00 77 1017.9
20260831030700 79 310 2.0 4.0 0.00 0.00 0.00 77 1018.0
20260831030559 79 317 2.0 4.0 0.00 0.00 0.00 77 1018.0
20260831030500 79 340 2.0 4.0 0.00 0.00 0.00 77 1018.0
20260831030400 79 328 2.0 4.0 0.00 0.00 0.00 77 1018.1
20260831030259 79 333 2.0 4.0 0.00 0.00 0.00 77 1018.0
20260831030159 80 347 2.0 4.0 0.00 0.00 0.00 77 1017.9
20260831030059 80 1 0.0 4.0 0.00 0.00 0.00 77 1018.0
20260831030007 80 335 2.0 4.0 0.00 0.00 0.00 77 1018.0
20260831025858 80 342 2.0 4.0 0.00 0.00 0.00 77 1018.0
20260831025759 80 347 3.0 4.0 0.00 0.00 0.00 77 1017.9
20260831025658 80 349 2.0 4.0 0.00 0.00 0.00 77 1017.9
20260831025600 80 330 0.0 4.0 0.00 0.00 0.00 77 1018.0
20260831025500 80 15 2.0 4.0 0.00 0.00 0.00 77 1018.0
20260831025358 80 25 1.0 4.0 0.00 0.00 0.00 77 1017.9
20260831025258 80 326 0.0 4.0 0.00 0.00 0.00 77 1017.9
20260831025158 80 12 1.0 4.0 0.00 0.00 0.00 77 1017.9
20260831024700 80 293 0.0 4.0 0.00 0.00 0.00 77 1017.9
20260831024558 80 359 3.0 4.0 0.00 0.00 0.00 78 1017.9
20260831024358 80 22 0.0 4.0 0.00 0.00 0.00 78 1018.0
20260831024258 80 352 3.0 4.0 0.00 0.00 0.00 78 1018.0
20260831024200 80 342 2.0 3.0 0.00 0.00 0.00 78 1018.0
20260831024006 80 347 2.0 4.0 0.00 0.00 0.00 78 1018.0
20260831023859 80 3 2.0 4.0 0.00 0.00 0.00 78 1017.9
20260831023758 80 8 0.0 4.0 0.00 0.00 0.00 78 1018.0
20260831023658 80 352 3.0 4.0 0.00 0.00 0.00 78 1018.0
20260831023600 80 349 2.0 4.0 0.00 0.00 0.00 78 1018.0
20260831023358 80 326 3.0 4.0 0.00 0.00 0.00 78 1018.0
20260831023259 80 321 0.0 4.0 0.00 0.00 0.00 78 1018.1
20260831023158 80 354 3.0 4.0 0.00 0.00 0.00 78 1018.0
20260831023100 80 20 2.0 4.0 0.00 0.00 0.00 78 1017.9
20260831023005 80 335 1.0 4.0 0.00 0.00 0.00 77 1017.9
20260831022859 80 335 2.0 3.0 0.00 0.00 0.00 77 1018.0
20260831022659 80 23 0.0 3.0 0.00 0.00 0.00 77 1018.0
20260831022558 80 295 1.0 3.0 0.00 0.00 0.00 77 1018.1
20260831022503 80 360 2.0 3.0 0.00 0.00 0.00 77 1018.0
20260831022359 80 340 1.0 3.0 0.00 0.00 0.00 77 1018.0
20260831022258 80 336 2.0 3.0 0.00 0.00 0.00 77 1018.1
20260831022159 80 335 3.0 3.0 0.00 0.00 0.00 77 1018.0
20260831022100 80 354 1.0 3.0 0.00 0.00 0.00 77 1018.1
20260831022005 80 338 2.0 3.0 0.00 0.00 0.00 77 1018.0
20260831021858 80 336 2.0 3.0 0.00 0.00 0.00 77 1018.0
20260831021803 80 331 2.0 3.0 0.00 0.00 0.00 77 1017.9
20260831021700 80 316 2.0 3.0 0.00 0.00 0.00 77 1018.0
20260831021559 81 352 2.0 3.0 0.00 0.00 0.00 77 1018.0
20260831021500 81 312 0.0 4.0 0.00 0.00 0.00 76 1017.9
20260831021259 81 356 2.0 4.0 0.00 0.00 0.00 76 1017.9
20260831021159 81 322 2.0 4.0 0.00 0.00 0.00 76 1017.9
20260831021059 81 356 3.0 4.0 0.00 0.00 0.00 76 1017.9
20260831021001 81 345 2.0 4.0 0.00 0.00 0.00 76 1017.8
20260831020658 81 356 0.0 4.0 0.00 0.00 0.00 76 1017.9
20260831020559 81 358 3.0 4.0 0.00 0.00 0.00 76 1017.8
20260831020459 81 345 3.0 4.0 0.00 0.00 0.00 76 1017.9
20260831020358 81 338 2.0 4.0 0.00 0.00 0.00 76 1017.8
20260831020307 81 329 0.0 4.0 0.00 0.00 0.00 76 1017.9
20260831020159 81 319 3.0 4.0 0.00 0.00 0.00 75 1017.9
20260831020059 81 349 2.0 4.0 0.00 0.00 0.00 75 1017.9
20260831020004 81 356 2.0 4.0 0.00 0.00 0.00 75 1017.9
20260831015858 81 354 4.0 4.0 0.00 0.00 0.00 75 1017.9
20260831015803 81 342 2.0 5.0 0.00 0.00 0.00 75 1018.0
20260831015658 81 335 3.0 5.0 0.00 0.00 0.00 75 1017.9
20260831015559 81 343 3.0 5.0 0.00 0.00 0.00 75 1017.9
20260831015500 81 307 1.0 5.0 0.00 0.00 0.00 75 1017.9
20260831015301 81 326 3.0 5.0 0.00 0.00 0.00 75 1017.9
20260831015207 81 314 2.0 5.0 0.00 0.00 0.00 75 1017.9
20260831015058 82 324 2.0 5.0 0.00 0.00 0.00 74 1017.8
20260831014859 82 302 3.0 5.0 0.00 0.00 0.00 74 1017.8
20260831014759 82 316 2.0 4.0 0.00 0.00 0.00 74 1017.8
20260831014657 82 296 0.0 4.0 0.00 0.00 0.00 74 1017.8
20260831014559 82 326 2.0 4.0 0.00 0.00 0.00 74 1017.7
20260831014459 82 328 2.0 4.0 0.00 0.00 0.00 74 1017.7
20260831014259 82 333 2.0 4.0 0.00 0.00 0.00 74 1017.7
20260831014200 82 302 0.0 4.0 0.00 0.00 0.00 74 1017.7
20260831014004 82 342 3.0 4.0 0.00 0.00 0.00 73 1017.7
20260831013858 82 315 1.0 4.0 0.00 0.00 0.00 73 1017.7
20260831013758 82 316 0.0 4.0 0.00 0.00 0.00 73 1017.7
20260831013658 82 295 2.0 4.0 0.00 0.00 0.00 73 1017.7
20260831013558 82 309 2.0 4.0 0.00 0.00 0.00 73 1017.7
20260831013358 82 38 0.0 4.0 0.00 0.00 0.00 73 1017.7
20260831013158 82 296 0.0 4.0 0.00 0.00 0.00 72 1017.8
20260831013059 82 3 1.0 4.0 0.00 0.00 0.00 72 1017.7
20260831013004 82 46 1.0 5.0 0.00 0.00 0.00 72 1017.7
20260831012559 82 340 3.0 5.0 0.00 0.00 0.00 72 1017.7
20260831012359 82 319 3.0 5.0 0.00 0.00 0.00 71 1017.7
20260831012259 82 358 4.0 5.0 0.00 0.00 0.00 71 1017.7
20260831012159 83 20 2.0 5.0 0.00 0.00 0.00 71 1017.7
20260831012059 83 347 3.0 5.0 0.00 0.00 0.00 71 1017.7
20260831011858 83 326 1.0 5.0 0.00 0.00 0.00 71 1017.7
20260831011700 83 20 5.0 5.0 0.00 0.00 0.00 70 1017.6
20260831011159 83 335 3.0 5.0 0.00 0.00 0.00 70 1017.6
20260831011058 83 300 1.0 5.0 0.00 0.00 0.00 70 1017.6
20260831010901 83 69 1.0 5.0 0.00 0.00 0.00 70 1017.5
20260831010658 83 6 4.0 5.0 0.00 0.00 0.00 70 1017.6
20260831010559 83 11 1.0 5.0 0.00 0.00 0.00 70 1017.5
20260831010502 83 300 0.0 6.0 0.00 0.00 0.00 70 1017.6
20260831010258 83 345 3.0 6.0 0.00 0.00 0.00 70 1017.6
20260831010200 83 286 0.0 6.0 0.00 0.00 0.00 70 1017.5
20260831010008 83 43 3.0 6.0 0.00 0.00 0.00 70 1017.4
20260831005858 83 311 2.0 6.0 0.00 0.00 0.00 70 1017.4
20260831005758 83 165 2.0 6.0 0.00 0.00 0.00 70 1017.4
20260831005659 83 81 1.0 6.0 0.00 0.00 0.00 70 1017.3
20260831005501 83 314 3.0 6.0 0.00 0.00 0.00 70 1017.5
20260831005359 83 301 1.0 6.0 0.00 0.00 0.00 70 1017.5
20260831005258 84 285 0.0 6.0 0.00 0.00 0.00 70 1017.5
20260831005100 84 295 2.0 6.0 0.00 0.00 0.00 69 1017.5
20260831005004 84 29 2.0 6.0 0.00 0.00 0.00 69 1017.5
20260831004858 84 326 0.0 6.0 0.00 0.00 0.00 70 1017.5
20260831004800 84 326 0.0 5.0 0.00 0.00 0.00 69 1017.5
20260831004659 84 348 1.0 5.0 0.00 0.00 0.00 69 1017.5
20260831004558 84 123 2.0 5.0 0.00 0.00 0.00 69 1017.5
20260831004500 84 22 3.0 5.0 0.00 0.00 0.00 69 1017.4
20260831004358 84 331 2.0 5.0 0.00 0.00 0.00 69 1017.4
20260831004259 84 333 2.0 5.0 0.00 0.00 0.00 69 1017.4
20260831004159 84 18 2.0 5.0 0.00 0.00 0.00 69 1017.4
20260831004059 84 1 4.0 6.0 0.00 0.00 0.00 69 1017.4
20260831003859 84 8 1.0 6.0 0.00 0.00 0.00 69 1017.4
20260831003800 84 15 1.0 6.0 0.00 0.00 0.00 69 1017.4
20260831003600 84 328 0.0 6.0 0.00 0.00 0.00 69 1017.3
20260831003459 84 316 0.0 6.0 0.00 0.00 0.00 69 1017.3
20260831003400 84 324 1.0 7.0 0.00 0.00 0.00 69 1017.3
20260831003159 84 64 1.0 7.0 0.00 0.00 0.00 69 1017.3
20260831003100 84 46 1.0 7.0 0.00 0.00 0.00 69 1017.4
20260831002858 84 34 0.0 7.0 0.00 0.00 0.00 69 1017.4
20260831002800 85 349 1.0 7.0 0.00 0.00 0.00 69 1017.4
20260831002659 85 331 0.0 7.0 0.00 0.00 0.00 69 1017.4
20260831002600 85 350 0.0 7.0 0.00 0.00 0.00 69 1017.4
20260831002259 85 13 3.0 4.0 0.00 0.00 0.00 70 1017.5
20260831002158 85 338 2.0 4.0 0.00 0.00 0.00 70 1017.4
20260831002058 85 160 0.0 4.0 0.00 0.00 0.00 70 1017.4
20260831002004 85 360 2.0 3.0 0.00 0.00 0.00 70 1017.4
20260831001858 85 15 0.0 3.0 0.00 0.00 0.00 70 1017.3
20260831001800 85 345 1.0 3.0 0.00 0.00 0.00 70 1017.3
20260831001658 85 160 1.0 3.0 0.00 0.00 0.00 70 1017.3
20260831001558 85 290 0.0 3.0 0.00 0.00 0.00 70 1017.3
20260831001500 85 333 0.0 3.0 0.00 0.00 0.00 70 1017.3
20260831001358 85 326 1.0 3.0 0.00 0.00 0.00 70 1017.4
20260831001258 85 340 0.0 3.0 0.00 0.00 0.00 70 1017.3
20260831001158 85 352 1.0 2.0 0.00 0.00 0.00 69 1017.3
20260831001059 85 316 0.0 2.0 0.00 0.00 0.00 69 1017.2
20260831001001 85 330 2.0 2.0 0.00 0.00 0.00 69 1017.2
20260831000858 85 356 0.0 2.0 0.00 0.00 0.00 69 1017.3
20260831000759 85 165 0.0 2.0 0.00 0.00 0.00 69 1017.2
20260831000658 85 328 0.0 2.0 0.00 0.00 0.00 69 1017.3
20260831000557 85 309 0.0 2.0 0.00 0.00 0.00 69 1017.3
20260831000358 85 57 0.0 2.0 0.00 0.00 0.00 69 1017.3
20260831000258 85 319 0.0 2.0 0.00 0.00 0.00 69 1017.3
20260831000204 85 314 0.0 2.0 0.00 0.00 0.00 69 1017.2
20260831000058 85 316 0.0 2.0 0.00 0.00 0.00 69 1017.1
20260830235859 85 167 0.0 2.0 0.00 0.00 0.00 68 1017.1
20260830235759 85 288 0.0 2.0 0.00 0.00 0.00 68 1017.1
20260830235658 85 323 0.0 3.0 0.00 0.00 0.00 68 1017.1
20260830235557 85 300 0.0 3.0 0.00 0.00 0.00 68 1017.1
20260830235502 85 239 0.0 3.0 0.00 0.00 0.00 68 1017.1
20260830235358 85 308 0.0 3.0 0.00 0.00 0.00 68 1017.1
20260830235259 85 300 0.0 3.0 0.00 0.00 0.00 68 1017.1
20260830235158 85 297 0.0 3.0 0.00 0.00 0.00 68 1017.1
20260830235059 85 302 0.0 3.0 0.00 0.00 0.00 68 1017.0
20260830235004 86 334 1.0 4.0 0.00 0.00 0.00 68 1017.0
20260830234859 86 312 0.0 4.0 0.00 0.00 0.00 68 1017.1
20260830234758 86 333 1.0 4.0 0.00 0.00 0.00 68 1017.1
20260830234658 86 323 0.0 4.0 0.00 0.00 0.00 68 1016.9
20260830234559 86 333 0.0 4.0 0.00 0.00 0.00 68 1017.0
20260830234459 86 328 1.0 4.0 0.00 0.00 0.00 67 1017.0
20260830234359 86 328 0.0 4.0 0.00 0.00 0.00 67 1017.0
20260830234257 86 321 0.0 4.0 0.00 0.00 0.00 67 1016.9
20260830234159 86 327 0.0 4.0 0.00 0.00 0.00 67 1016.9
20260830233900 86 347 0.0 3.0 0.00 0.00 0.00 67 1016.9
20260830233800 86 307 0.0 3.0 0.00 0.00 0.00 67 1016.8
20260830233700 86 333 0.0 3.0 0.00 0.00 0.00 67 1016.8
20260830233400 86 296 0.0 3.0 0.00 0.00 0.00 66 1016.8
20260830233200 86 302 1.0 3.0 0.00 0.00 0.00 66 1016.8
20260830233100 86 321 0.0 3.0 0.00 0.00 0.00 66 1016.8
20260830233004 86 317 2.0 3.0 0.00 0.00 0.00 66 1016.8
20260830232858 86 338 0.0 3.0 0.00 0.00 0.00 66 1016.8
20260830232759 86 333 0.0 3.0 0.00 0.00 0.00 66 1016.9
20260830232659 86 328 0.0 3.0 0.00 0.00 0.00 65 1016.7
20260830232500 86 315 2.0 4.0 0.00 0.00 0.00 65 1016.7
20260830232358 86 143 0.0 4.0 0.00 0.00 0.00 66 1016.7
20260830232159 87 321 2.0 4.0 0.00 0.00 0.00 66 1016.7
20260830231859 87 320 2.0 4.0 0.00 0.00 0.00 65 1016.6
20260830231759 87 319 0.0 4.0 0.00 0.00 0.00 65 1016.7
20260830231659 87 8 2.0 4.0 0.00 0.00 0.00 65 1016.6
20260830231559 87 6 3.0 4.0 0.00 0.00 0.00 65 1016.6
20260830231500 87 347 1.0 4.0 0.00 0.00 0.00 65 1016.6
20260830231300 87 47 0.0 3.0 0.00 0.00 0.00 65 1016.6
20260830231159 87 3 0.0 3.0 0.00 0.00 0.00 64 1016.6
20260830231102 87 287 2.0 3.0 0.00 0.00 0.00 64 1016.6
20260830231004 87 105 0.0 3.0 0.00 0.00 0.00 64 1016.7
20260830230758 87 76 2.0 6.0 0.00 0.00 0.00 64 1016.5
20260830230659 87 221 0.0 6.0 0.00 0.00 0.00 64 1016.6
20260830230558 87 30 2.0 6.0 0.00 0.00 0.00 64 1016.6
20260830230358 87 28 2.0 6.0 0.00 0.00 0.00 63 1016.6
20260830230259 87 76 2.0 7.0 0.00 0.00 0.00 63 1016.7
20260830230158 87 116 3.0 7.0 0.00 0.00 0.00 63 1016.6
20260830230058 87 20 2.0 7.0 0.00 0.00 0.00 63 1016.6
20260830230008 87 13 2.0 7.0 0.00 0.00 0.00 63 1016.6
20260830225858 87 127 3.0 7.0 0.00 0.00 0.00 63 1016.6
20260830225759 87 156 0.0 7.0 0.00 0.00 0.00 63 1016.7
20260830225657 87 1 1.0 7.0 0.00 0.00 0.00 64 1016.6
20260830225501 87 50 2.0 7.0 0.00 0.00 0.00 63 1016.7
20260830225359 87 6 0.0 3.0 0.00 0.00 0.00 63 1016.6
20260830225300 87 44 1.0 3.0 0.00 0.00 0.00 63 1016.6
20260830225158 87 134 0.0 3.0 0.00 0.00 0.00 64 1016.6
20260830225057 87 287 0.0 3.0 0.00 0.00 0.00 64 1016.7
20260830225004 87 255 0.0 5.0 0.00 0.00 0.00 64 1016.5
20260830224759 87 46 2.0 5.0 0.00 0.00 0.00 64 1016.6
20260830224659 88 331 2.0 5.0 0.00 0.00 0.00 63 1016.6
20260830224600 88 136 0.0 5.0 0.00 0.00 0.00 64 1016.5
20260830224501 88 334 2.0 5.0 0.00 0.00 0.00 63 1016.4
20260830224258 88 90 0.0 5.0 0.00 0.00 0.00 63 1016.5
20260830224159 88 331 0.0 5.0 0.00 0.00 0.00 63 1016.5
20260830224058 88 338 3.0 5.0 0.00 0.00 0.00 63 1016.5
20260830224004 88 19 2.0 5.0 0.00 0.00 0.00 63 1016.4
20260830223901 88 18 1.0 5.0 0.00 0.00 0.00 64 1016.5
20260830223759 88 319 2.0 5.0 0.00 0.00 0.00 63 1016.4
20260830223658 88 27 0.0 5.0 0.00 0.00 0.00 63 1016.5
20260830223500 88 10 2.0 5.0 0.00 0.00 0.00 63 1016.4
20260830223358 88 6 1.0 4.0 0.00 0.00 0.00 63 1016.5
20260830223058 88 340 2.0 6.0 0.00 0.00 0.00 63 1016.6
20260830222858 88 104 3.0 6.0 0.00 0.00 0.00 62 1016.5
20260830222558 88 329 2.0 6.0 0.00 0.00 0.00 62 1016.4
20260830222500 88 321 2.0 6.0 0.00 0.00 0.00 62 1016.4
20260830222358 88 33 2.0 6.0 0.00 0.00 0.00 62 1016.4
20260830222258 88 40 2.0 4.0 0.00 0.00 0.00 62 1016.5
20260830222158 88 343 2.0 4.0 0.00 0.00 0.00 62 1016.4
20260830222059 88 127 3.0 4.0 0.00 0.00 0.00 62 1016.4
20260830222004 88 359 2.0 4.0 0.00 0.00 0.00 62 1016.5
20260830221858 88 259 2.0 4.0 0.00 0.00 0.00 62 1016.5
20260830221758 88 348 3.0 4.0 0.00 0.00 0.00 62 1016.4
20260830221658 88 323 2.0 4.0 0.00 0.00 0.00 61 1016.4
20260830221503 88 79 0.0 5.0 0.00 0.00 0.00 61 1016.5
20260830221358 88 357 0.0 5.0 0.00 0.00 0.00 61 1016.5
20260830220859 89 311 2.0 5.0 0.00 0.00 0.00 60 1016.5
20260830220758 89 24 3.0 6.0 0.00 0.00 0.00 60 1016.5
20260830220659 89 17 4.0 6.0 0.00 0.00 0.00 60 1016.5
20260830220558 89 349 3.0 6.0 0.00 0.00 0.00 61 1016.5
20260830220500 89 15 0.0 6.0 0.00 0.00 0.00 62 1016.5
20260830220358 89 331 2.0 6.0 0.00 0.00 0.00 62 1016.5
20260830220300 89 308 0.0 6.0 0.00 0.00 0.00 62 1016.5
20260830220159 89 1 1.0 6.0 0.00 0.00 0.00 62 1016.5
20260830220059 89 17 1.0 6.0 0.00 0.00 0.00 62 1016.6
20260830220004 89 23 0.0 6.0 0.00 0.00 0.00 62 1016.5
20260830215858 89 24 5.0 5.0 0.00 0.00 0.00 61 1016.6
20260830215759 89 15 1.0 5.0 0.00 0.00 0.00 61 1016.6
20260830215659 89 326 4.0 5.0 0.00 0.00 0.00 61 1016.5
20260830215558 89 33 0.0 4.0 0.00 0.00 0.00 61 1016.5
20260830215503 89 4 2.0 4.0 0.00 0.00 0.00 62 1016.5
20260830215359 89 317 1.0 4.0 0.00 0.00 0.00 62 1016.5
20260830215259 89 82 2.0 4.0 0.00 0.00 0.00 62 1016.5
20260830215158 89 17 2.0 4.0 0.00 0.00 0.00 62 1016.5
20260830215058 89 342 3.0 4.0 0.00 0.00 0.00 62 1016.5
20260830215004 88 345 0.0 4.0 0.00 0.00 0.00 62 1016.5
20260830214759 89 6 2.0 5.0 0.00 0.00 0.00 61 1016.5
20260830214659 89 125 2.0 5.0 0.00 0.00 0.00 62 1016.5
20260830214558 89 6 3.0 5.0 0.00 0.00 0.00 62 1016.6
20260830214359 89 79 2.0 5.0 0.00 0.00 0.00 61 1016.6
20260830214300 89 286 0.0 5.0 0.00 0.00 0.00 61 1016.6
20260830214200 89 15 1.0 5.0 0.00 0.00 0.00 61 1016.6
20260830214058 89 64 1.0 5.0 0.00 0.00 0.00 62 1016.7
20260830214003 89 6 1.0 5.0 0.00 0.00 0.00 61 1016.6
20260830213859 89 109 1.0 5.0 0.00 0.00 0.00 61 1016.6
20260830213758 89 134 0.0 5.0 0.00 0.00 0.00 61 1016.6
20260830213659 89 37 1.0 5.0 0.00 0.00 0.00 61 1016.7
20260830213558 89 112 1.0 5.0 0.00 0.00 0.00 60 1016.6
20260830213500 89 313 1.0 5.0 0.00 0.00 0.00 60 1016.6
20260830213358 89 341 2.0 5.0 0.00 0.00 0.00 59 1016.6
20260830213258 89 98 5.0 5.0 0.00 0.00 0.00 60 1016.7
20260830213058 90 83 3.0 5.0 0.00 0.00 0.00 59 1016.7
20260830213005 90 141 4.0 5.0 0.00 0.00 0.00 59 1016.6
20260830212858 90 304 2.0 5.0 0.00 0.00 0.00 59 1016.7
20260830212758 90 332 0.0 5.0 0.00 0.00 0.00 61 1016.6
20260830212657 90 354 3.0 5.0 0.00 0.00 0.00 60 1016.7
20260830212558 90 57 0.0 5.0 0.00 0.00 0.00 60 1016.6
20260830212502 90 1 2.0 5.0 0.00 0.00 0.00 60 1016.7
20260830212158 90 1 3.0 5.0 0.00 0.00 0.00 61 1016.8
20260830212058 90 293 1.0 5.0 0.00 0.00 0.00 61 1016.7
20260830212004 89 305 3.0 5.0 0.00 0.00 0.00 61 1016.7
20260830211858 89 303 2.0 6.0 0.00 0.00 0.00 62 1016.7
20260830211759 89 32 1.0 6.0 0.00 0.00 0.00 62 1016.8
20260830211658 89 60 2.0 6.0 0.00 0.00 0.00 62 1016.7
20260830211558 89 77 4.0 6.0 0.00 0.00 0.00 62 1016.8
20260830211459 89 22 1.0 6.0 0.00 0.00 0.00 62 1016.7
20260830211401 89 29 1.0 6.0 0.00 0.00 0.00 62 1016.7
20260830211258 89 352 0.0 6.0 0.00 0.00 0.00 62 1016.8
20260830211158 89 112 0.0 6.0 0.00 0.00 0.00 62 1016.8
20260830211059 89 18 4.0 6.0 0.00 0.00 0.00 61 1016.8
20260830211004 90 352 1.0 5.0 0.00 0.00 0.00 61 1016.8
20260830210758 90 323 0.0 5.0 0.00 0.00 0.00 61 1016.8
20260830210700 90 27 4.0 5.0 0.00 0.00 0.00 61 1016.9
20260830210559 90 3 4.0 5.0 0.00 0.00 0.00 62 1016.8
20260830210358 90 20 1.0 5.0 0.00 0.00 0.00 60 1016.8
20260830210258 90 81 2.0 5.0 0.00 0.00 0.00 61 1016.9
20260830210158 90 13 3.0 5.0 0.00 0.00 0.00 61 1016.9
20260830210059 90 354 3.0 5.0 0.00 0.00 0.00 61 1016.8
20260830210005 89 5 3.0 5.0 0.00 0.00 0.00 61 1016.8
20260830205859 89 10 1.0 5.0 0.00 0.00 0.00 61 1016.9
20260830205758 89 34 1.0 5.0 0.00 0.00 0.00 60 1016.8
20260830205657 89 6 2.0 5.0 0.00 0.00 0.00 59 1016.8
20260830205500 89 355 3.0 6.0 0.00 0.00 0.00 60 1016.9
20260830205258 90 1 3.0 6.0 0.00 0.00 0.00 60 1017.0
20260830205159 90 112 2.0 6.0 0.00 0.00 0.00 60 1017.0
20260830205001 90 82 0.0 7.0 0.00 0.00 0.00 60 1017.0
20260830204858 90 8 4.0 7.0 0.00 0.00 0.00 59 1017.0
20260830204758 91 15 3.0 7.0 0.00 0.00 0.00 60 1016.9
20260830204659 91 12 3.0 7.0 0.00 0.00 0.00 60 1016.9
20260830204558 90 5 4.0 7.0 0.00 0.00 0.00 60 1016.9
20260830204501 90 343 3.0 7.0 0.00 0.00 0.00 59 1016.9
20260830204158 90 13 2.0 6.0 0.00 0.00 0.00 59 1016.9
20260830204059 90 1 4.0 6.0 0.00 0.00 0.00 59 1016.9
20260830204004 90 6 3.0 6.0 0.00 0.00 0.00 60 1017.0
20260830203759 90 1 4.0 6.0 0.00 0.00 0.00 60 1017.0
20260830203659 90 352 5.0 7.0 0.00 0.00 0.00 61 1017.0
20260830203559 90 360 3.0 7.0 0.00 0.00 0.00 62 1017.0
20260830203459 90 359 3.0 7.0 0.00 0.00 0.00 62 1017.0
20260830203159 89 1 3.0 7.0 0.00 0.00 0.00 62 1017.0
20260830203059 89 17 3.0 7.0 0.00 0.00 0.00 61 1017.0
20260830203004 89 117 3.0 7.0 0.00 0.00 0.00 61 1017.1
20260830202859 90 41 3.0 7.0 0.00 0.00 0.00 60 1017.1
20260830202759 90 10 5.0 7.0 0.00 0.00 0.00 61 1017.1
20260830202658 90 49 2.0 7.0 0.00 0.00 0.00 62 1017.2
20260830202500 90 10 4.0 7.0 0.00 0.00 0.00 61 1017.1
20260830202358 90 8 5.0 7.0 0.00 0.00 0.00 61 1017.1
20260830202258 90 13 5.0 6.0 0.00 0.00 0.00 61 1017.1
20260830202159 90 27 3.0 6.0 0.00 0.00 0.00 61 1017.1
20260830202004 90 44 1.0 6.0 0.00 0.00 0.00 61 1017.1
20260830201858 90 6 4.0 8.0 0.00 0.00 0.00 61 1017.1
20260830201759 90 352 2.0 8.0 0.00 0.00 0.00 61 1017.2
20260830201657 90 354 4.0 8.0 0.00 0.00 0.00 61 1017.2
20260830201557 90 39 1.0 8.0 0.00 0.00 0.00 61 1017.2
20260830201501 90 305 0.0 8.0 0.00 0.00 0.00 61 1017.1
20260830201357 90 102 4.0 8.0 0.00 0.00 0.00 62 1017.2
20260830201259 90 4 3.0 8.0 0.00 0.00 0.00 61 1017.2
20260830201159 90 58 0.0 8.0 0.00 0.00 0.00 61 1017.1
20260830201058 90 4 5.0 8.0 0.00 0.00 0.00 61 1017.1
20260830201004 90 31 6.0 8.0 0.00 0.00 0.00 61 1017.1
20260830200859 90 104 5.0 6.0 0.00 0.00 0.00 61 1017.1
20260830200657 90 4 3.0 6.0 0.00 0.00 0.00 61 1017.2
20260830200558 90 15 3.0 6.0 0.00 0.00 0.00 62 1017.1
20260830200500 90 336 2.0 6.0 0.00 0.00 0.00 62 1017.3
20260830200358 90 34 1.0 6.0 0.00 0.00 0.00 61 1017.3
20260830200258 90 12 3.0 4.0 0.00 0.00 0.00 62 1017.2
20260830200158 90 15 0.0 4.0 0.00 0.00 0.00 61 1017.3
20260830200057 90 94 0.0 4.0 0.00 0.00 0.00 62 1017.3
20260830200005 90 61 0.0 5.0 0.00 0.00 0.00 61 1017.3
20260830195858 90 355 2.0 7.0 0.00 0.00 0.00 61 1017.3
20260830195757 90 329 2.0 7.0 0.00 0.00 0.00 61 1017.3
20260830195658 90 76 0.0 7.0 0.00 0.00 0.00 61 1017.3
20260830195558 90 4 3.0 7.0 0.00 0.00 0.00 60 1017.4
20260830195359 90 117 1.0 7.0 0.00 0.00 0.00 60 1017.3
20260830195258 90 360 0.0 7.0 0.00 0.00 0.00 59 1017.4
20260830195158 90 49 3.0 7.0 0.00 0.00 0.00 58 1017.4
20260830195059 90 20 4.0 7.0 0.00 0.00 0.00 59 1017.4
20260830195002 90 345 3.0 6.0 0.00 0.00 0.00 59 1017.4
20260830194800 90 4 0.0 7.0 0.00 0.00 0.00 58 1017.4
20260830194659 90 360 5.0 7.0 0.00 0.00 0.00 58 1017.4
20260830194557 90 324 2.0 7.0 0.00 0.00 0.00 58 1017.4
20260830194459 91 6 4.0 7.0 0.00 0.00 0.00 58 1017.4
20260830194358 90 105 3.0 7.0 0.00 0.00 0.00 58 1017.5
20260830194258 90 39 3.0 7.0 0.00 0.00 0.00 58 1017.4
20260830194158 90 353 4.0 7.0 0.00 0.00 0.00 58 1017.4
20260830194058 90 358 3.0 8.0 0.00 0.00 0.00 57 1017.5
20260830194004 91 345 0.0 8.0 0.00 0.00 0.00 57 1017.4
20260830193858 91 39 2.0 8.0 0.00 0.00 0.00 57 1017.5
20260830193757 91 360 0.0 8.0 0.00 0.00 0.00 58 1017.5
20260830193659 91 88 2.0 8.0 0.00 0.00 0.00 58 1017.4
20260830193558 92 345 5.0 9.0 0.00 0.00 0.00 58 1017.4
20260830193459 92 6 4.0 9.0 0.00 0.00 0.00 57 1017.4
20260830193358 92 345 6.0 9.0 0.00 0.00 0.00 56 1017.5
20260830193258 92 8 6.0 9.0 0.00 0.00 0.00 56 1017.5
20260830193058 92 356 5.0 9.0 0.00 0.00 0.00 57 1017.5
20260830193003 92 337 6.0 9.0 0.00 0.00 0.00 56 1017.5
20260830192758 92 11 3.0 9.0 0.00 0.00 0.00 56 1017.5
20260830192658 93 13 6.0 8.0 0.00 0.00 0.00 57 1017.5
20260830192559 93 4 2.0 8.0 0.00 0.00 0.00 57 1017.6
20260830192500 93 269 4.0 8.0 0.00 0.00 0.00 58 1017.6
20260830192258 93 127 7.0 8.0 0.00 0.00 0.00 57 1017.6
20260830192157 93 344 5.0 8.0 0.00 0.00 0.00 57 1017.6
20260830192058 93 5 5.0 8.0 0.00 0.00 0.00 57 1017.7
20260830192004 93 20 7.0 8.0 0.00 0.00 0.00 56 1017.7
20260830191857 93 342 3.0 8.0 0.00 0.00 0.00 57 1017.7
20260830191759 93 6 8.0 8.0 0.00 0.00 0.00 57 1017.7
20260830191558 92 344 4.0 8.0 0.00 0.00 0.00 56 1017.8
20260830191459 93 31 1.0 8.0 0.00 0.00 0.00 56 1017.8
20260830191358 93 359 3.0 8.0 0.00 0.00 0.00 55 1017.8
20260830191259 93 315 2.0 8.0 0.00 0.00 0.00 57 1017.8
20260830191159 92 306 4.0 8.0 0.00 0.00 0.00 56 1017.9
20260830191100 92 34 1.0 8.0 0.00 0.00 0.00 55 1017.9
20260830191001 92 64 5.0 8.0 0.00 0.00 0.00 55 1017.8
20260830190858 93 25 3.0 8.0 0.00 0.00 0.00 55 1017.9
20260830190758 92 41 8.0 8.0 0.00 0.00 0.00 55 1017.9
20260830190658 92 353 3.0 7.0 0.00 0.00 0.00 55 1017.9
20260830190459 93 294 2.0 7.0 0.00 0.00 0.00 59 1018.0
20260830190358 92 302 3.0 7.0 0.00 0.00 0.00 58 1017.9
20260830190258 93 328 4.0 7.0 0.00 0.00 0.00 57 1018.0
20260830190059 93 345 3.0 7.0 0.00 0.00 0.00 57 1018.0
20260830190003 93 339 4.0 7.0 0.00 0.00 0.00 57 1018.0
20260830185857 93 344 1.0 7.0 0.00 0.00 0.00 57 1018.0
20260830185656 92 360 5.0 7.0 0.00 0.00 0.00 58 1018.0
20260830185557 93 307 4.0 8.0 0.00 0.00 0.00 57 1018.0
20260830185500 93 19 4.0 8.0 0.00 0.00 0.00 58 1018.0
20260830185356 92 13 3.0 8.0 0.00 0.00 0.00 58 1018.0
20260830185257 92 17 2.0 8.0 0.00 0.00 0.00 57 1018.1
20260830185157 92 354 4.0 8.0 0.00 0.00 0.00 58 1018.1
20260830185059 92 288 3.0 8.0 0.00 0.00 0.00 57 1018.1
20260830185004 92 325 4.0 8.0 0.00 0.00 0.00 57 1018.1
20260830184859 92 342 4.0 8.0 0.00 0.00 0.00 58 1018.1
20260830184757 92 342 5.0 8.0 0.00 0.00 0.00 56 1018.1
20260830184656 92 6 5.0 8.0 0.00 0.00 0.00 58 1018.2
20260830184558 92 358 6.0 8.0 0.00 0.00 0.00 58 1018.1
20260830184457 93 4 6.0 7.0 0.00 0.00 0.00 58 1018.2
20260830184358 93 87 1.0 7.0 0.00 0.00 0.00 58 1018.2
20260830184157 92 345 5.0 7.0 0.00 0.00 0.00 59 1018.3
20260830184057 92 360 3.0 7.0 0.00 0.00 0.00 59 1018.2
20260830184002 92 349 5.0 7.0 0.00 0.00 0.00 60 1018.3
20260830183856 92 6 4.0 7.0 0.00 0.00 0.00 60 1018.3
20260830183756 91 338 3.0 7.0 0.00 0.00 0.00 59 1018.2
20260830183657 92 358 4.0 7.0 0.00 0.00 0.00 59 1018.3
20260830183557 92 52 3.0 7.0 0.00 0.00 0.00 58 1018.4
20260830183357 92 26 2.0 7.0 0.00 0.00 0.00 60 1018.3
20260830183256 92 310 4.0 6.0 0.00 0.00 0.00 60 1018.3
20260830183157 92 26 3.0 6.0 0.00 0.00 0.00 59 1018.3
20260830183000 92 15 5.0 6.0 0.00 0.00 0.00 60 1018.2
20260830182857 91 4 3.0 6.0 0.00 0.00 0.00 61 1018.3
20260830182757 91 355 5.0 6.0 0.00 0.00 0.00 61 1018.2
20260830182657 91 15 2.0 6.0 0.00 0.00 0.00 61 1018.2
20260830182558 91 15 3.0 6.0 0.00 0.00 0.00 62 1018.2
20260830182459 90 12 3.0 6.0 0.00 0.00 0.00 63 1018.2
20260830182256 89 4 2.0 5.0 0.00 0.00 0.00 62 1018.3
20260830182157 89 46 0.0 8.0 0.00 0.00 0.00 63 1018.3
20260830182000 89 23 2.0 8.0 0.00 0.00 0.00 62 1018.4
20260830181856 88 6 2.0 8.0 0.00 0.00 0.00 63 1018.4
20260830181756 88 342 3.0 8.0 0.00 0.00 0.00 63 1018.5
20260830181657 89 34 2.0 8.0 0.00 0.00 0.00 63 1018.5
20260830181556 89 15 2.0 8.0 0.00 0.00 0.00 63 1018.6
20260830181458 89 1 0.0 8.0 0.00 0.00 0.00 63 1018.5
20260830181357 89 26 3.0 8.0 0.00 0.00 0.00 62 1018.5
20260830181257 90 20 7.0 8.0 0.00 0.00 0.00 62 1018.5
20260830181157 90 8 6.0 8.0 0.00 0.00 0.00 61 1018.5
20260830181056 90 25 4.0 7.0 0.00 0.00 0.00 61 1018.5
20260830181000 90 12 6.0 7.0 0.00 0.00 0.00 61 1018.5
20260830180856 90 30 3.0 6.0 0.00 0.00 0.00 62 1018.5
20260830180757 90 13 6.0 6.0 0.00 0.00 0.00 62 1018.5
20260830180658 90 57 0.0 6.0 0.00 0.00 0.00 61 1018.4
20260830180556 90 360 4.0 6.0 0.00 0.00 0.00 62 1018.5
20260830180458 90 17 5.0 6.0 0.00 0.00 0.00 61 1018.6
20260830180357 90 315 0.0 6.0 0.00 0.00 0.00 62 1018.7
20260830180257 90 1 4.0 6.0 0.00 0.00 0.00 63 1018.7
20260830180157 89 8 2.0 6.0 0.00 0.00 0.00 63 1018.7
20260830180056 89 15 3.0 6.0 0.00 0.00 0.00 63 1018.7
20260830175959 89 3 4.0 6.0 0.00 0.00 0.00 61 1018.8
20260830175857 90 63 4.0 6.0 0.00 0.00 0.00 60 1018.7
20260830175757 90 20 6.0 6.0 0.00 0.00 0.00 61 1018.8
20260830175656 90 58 3.0 7.0 0.00 0.00 0.00 61 1018.9
20260830175557 90 33 3.0 7.0 0.00 0.00 0.00 60 1018.8
20260830175357 90 341 4.0 7.0 0.00 0.00 0.00 62 1018.9
20260830175257 89 331 2.0 7.0 0.00 0.00 0.00 62 1018.8
20260830175156 89 5 4.0 7.0 0.00 0.00 0.00 62 1018.9
20260830175057 89 6 2.0 7.0 0.00 0.00 0.00 63 1018.8
20260830174959 89 1 3.0 7.0 0.00 0.00 0.00 62 1018.8
20260830174657 89 12 4.0 6.0 0.00 0.00 0.00 62 1018.8
20260830174459 89 41 2.0 6.0 0.00 0.00 0.00 62 1018.8
20260830174356 90 13 5.0 6.0 0.00 0.00 0.00 62 1018.8
20260830174257 90 340 4.0 6.0 0.00 0.00 0.00 62 1018.8
20260830174157 89 15 4.0 6.0 0.00 0.00 0.00 61 1018.8
20260830174000 89 345 5.0 6.0 0.00 0.00 0.00 62 1018.9
20260830173857 89 24 6.0 6.0 0.00 0.00 0.00 63 1019.0
20260830173757 89 356 3.0 6.0 0.00 0.00 0.00 62 1019.0
20260830173658 89 350 5.0 6.0 0.00 0.00 0.00 62 1019.0
20260830173557 90 27 2.0 6.0 0.00 0.00 0.00 62 1018.9
20260830173458 90 6 2.0 6.0 0.00 0.00 0.00 61 1019.0
20260830173357 90 289 1.0 5.0 0.00 0.00 0.00 59 1019.0
20260830173257 91 69 0.0 6.0 0.00 0.00 0.00 59 1019.0
20260830173156 91 41 3.0 6.0 0.00 0.00 0.00 60 1019.0
20260830173057 91 15 3.0 6.0 0.00 0.00 0.00 60 1019.0
20260830172858 90 20 2.0 7.0 0.00 0.00 0.00 62 1018.9
20260830172757 89 263 1.0 7.0 0.00 0.00 0.00 61 1019.0
20260830172657 89 10 2.0 7.0 0.00 0.00 0.00 62 1019.0
20260830172557 88 66 0.0 7.0 0.00 0.00 0.00 62 1019.0
20260830172459 88 24 5.0 7.0 0.00 0.00 0.00 62 1019.0
20260830172357 89 40 3.0 7.0 0.00 0.00 0.00 61 1019.0
20260830172257 89 5 4.0 7.0 0.00 0.00 0.00 60 1019.0
20260830172157 89 131 2.0 7.0 0.00 0.00 0.00 60 1019.0
20260830172056 90 82 2.0 7.0 0.00 0.00 0.00 60 1019.0
20260830171959 90 360 5.0 7.0 0.00 0.00 0.00 60 1019.0
20260830171856 90 91 2.0 7.0 0.00 0.00 0.00 60 1019.0
20260830171656 90 347 3.0 7.0 0.00 0.00 0.00 60 1019.0
20260830171257 89 13 5.0 8.0 0.00 0.00 0.00 59 1019.0
20260830171057 90 343 3.0 8.0 0.00 0.00 0.00 60 1019.1
20260830171000 90 64 3.0 8.0 0.00 0.00 0.00 59 1019.2
20260830170856 90 8 3.0 8.0 0.00 0.00 0.00 58 1019.1
20260830170757 91 6 4.0 8.0 0.00 0.00 0.00 58 1019.2
20260830170657 91 327 3.0 8.0 0.00 0.00 0.00 58 1019.1
20260830170557 91 66 2.0 8.0 0.00 0.00 0.00 58 1019.1
20260830170458 91 360 3.0 7.0 0.00 0.00 0.00 59 1019.1
20260830170356 91 350 4.0 7.0 0.00 0.00 0.00 59 1019.2
20260830170256 90 24 5.0 7.0 0.00 0.00 0.00 59 1019.1
20260830170157 90 332 3.0 8.0 0.00 0.00 0.00 59 1019.1
20260830170057 90 352 5.0 8.0 0.00 0.00 0.00 58 1019.1
20260830170002 90 11 2.0 8.0 0.00 0.00 0.00 59 1019.1
20260830165859 90 33 3.0 8.0 0.00 0.00 0.00 61 1019.2
20260830165758 90 352 1.0 8.0 0.00 0.00 0.00 61 1019.2
20260830165658 90 340 4.0 8.0 0.00 0.00 0.00 61 1019.2
20260830165557 89 19 6.0 8.0 0.00 0.00 0.00 62 1019.2
20260830165459 90 314 3.0 8.0 0.00 0.00 0.00 61 1019.3
20260830165358 90 130 3.0 8.0 0.00 0.00 0.00 60 1019.3
20260830165258 90 341 3.0 6.0 0.00 0.00 0.00 61 1019.3
20260830165158 90 314 2.0 6.0 0.00 0.00 0.00 62 1019.4
20260830165058 89 351 4.0 6.0 0.00 0.00 0.00 61 1019.4
20260830165001 90 88 1.0 6.0 0.00 0.00 0.00 61 1019.5
20260830164858 89 1 5.0 6.0 0.00 0.00 0.00 61 1019.5
20260830164758 89 39 2.0 6.0 0.00 0.00 0.00 61 1019.5
20260830164658 89 13 3.0 6.0 0.00 0.00 0.00 61 1019.5
20260830164558 89 18 6.0 6.0 0.00 0.00 0.00 63 1019.6
20260830164459 88 359 5.0 6.0 0.00 0.00 0.00 63 1019.6
20260830164357 88 29 3.0 6.0 0.00 0.00 0.00 63 1019.6
20260830164258 88 357 4.0 6.0 0.00 0.00 0.00 62 1019.7
20260830164158 88 343 3.0 6.0 0.00 0.00 0.00 62 1019.7
20260830164059 89 354 2.0 6.0 0.00 0.00 0.00 62 1019.8
20260830164002 89 25 4.0 6.0 0.00 0.00 0.00 61 1019.8
20260830163857 89 357 3.0 6.0 0.00 0.00 0.00 62 1019.8
20260830163759 89 30 6.0 6.0 0.00 0.00 0.00 61 1019.8
20260830163558 89 359 6.0 6.0 0.00 0.00 0.00 63 1019.7
20260830163459 89 149 2.0 6.0 0.00 0.00 0.00 63 1019.7
20260830163359 89 17 5.0 7.0 0.00 0.00 0.00 63 1019.7
20260830163258 88 13 4.0 7.0 0.00 0.00 0.00 63 1019.8
20260830163158 89 343 3.0 7.0 0.00 0.00 0.00 62 1019.8
20260830163058 89 1 3.0 7.0 0.00 0.00 0.00 63 1019.8
20260830163002 89 34 4.0 7.0 0.00 0.00 0.00 63 1019.8
20260830162858 89 85 1.0 7.0 0.00 0.00 0.00 63 1019.8
20260830162759 89 36 3.0 7.0 0.00 0.00 0.00 62 1019.8
20260830162558 89 340 1.0 7.0 0.00 0.00 0.00 63 1019.8
20260830162458 89 20 7.0 7.0 0.00 0.00 0.00 64 1019.8
20260830162258 88 12 2.0 5.0 0.00 0.00 0.00 66 1019.8
20260830162159 87 313 2.0 5.0 0.00 0.00 0.00 66 1019.8
20260830162057 87 345 3.0 5.0 0.00 0.00 0.00 64 1019.9
20260830162001 87 79 4.0 5.0 0.00 0.00 0.00 65 1019.9
20260830161757 88 4 4.0 5.0 0.00 0.00 0.00 64 1019.9
20260830161658 88 353 5.0 6.0 0.00 0.00 0.00 66 1019.9
20260830161500 88 359 0.0 6.0 0.00 0.00 0.00 65 1019.9
20260830161358 88 301 2.0 7.0 0.00 0.00 0.00 65 1020.0
20260830161258 88 11 3.0 7.0 0.00 0.00 0.00 64 1020.0
20260830161158 89 360 4.0 7.0 0.00 0.00 0.00 64 1020.0
20260830160858 88 39 4.0 7.0 0.00 0.00 0.00 65 1019.9
20260830160758 88 357 4.0 7.0 0.00 0.00 0.00 65 1020.0
20260830160657 88 356 5.0 7.0 0.00 0.00 0.00 65 1019.9
20260830160558 88 6 4.0 7.0 0.00 0.00 0.00 65 1019.9
20260830160500 88 45 2.0 7.0 0.00 0.00 0.00 64 1019.9
20260830160158 88 39 4.0 5.0 0.00 0.00 0.00 66 1019.9
20260830160058 88 41 3.0 5.0 0.00 0.00 0.00 65 1019.9
20260830160004 88 84 2.0 5.0 0.00 0.00 0.00 65 1019.9
20260830155756 88 104 3.0 7.0 0.00 0.00 0.00 67 1019.9
20260830155657 88 27 3.0 7.0 0.00 0.00 0.00 67 1019.9
20260830155557 88 41 3.0 7.0 0.00 0.00 0.00 67 1019.9
20260830155458 87 15 4.0 7.0 0.00 0.00 0.00 67 1019.9
20260830155358 87 6 3.0 7.0 0.00 0.00 0.00 67 1019.9
20260830155256 87 91 0.0 7.0 0.00 0.00 0.00 66 1019.8
20260830155157 87 18 1.0 7.0 0.00 0.00 0.00 67 1020.0
20260830154959 87 1 3.0 7.0 0.00 0.00 0.00 67 1019.9
20260830154856 87 312 2.0 6.0 0.00 0.00 0.00 67 1019.9
20260830154756 87 12 1.0 5.0 0.00 0.00 0.00 67 1019.9
20260830154656 87 80 0.0 5.0 0.00 0.00 0.00 67 1019.9
20260830154557 87 41 2.0 5.0 0.00 0.00 0.00 67 1019.9
20260830154256 87 334 3.0 7.0 0.00 0.00 0.00 67 1019.9
20260830154158 87 11 4.0 7.0 0.00 0.00 0.00 68 1020.0
20260830154057 87 100 3.0 7.0 0.00 0.00 0.00 67 1019.9
20260830154004 87 56 1.0 7.0 0.00 0.00 0.00 67 1019.9
20260830153857 87 59 4.0 7.0 0.00 0.00 0.00 67 1020.0
20260830153758 87 321 3.0 7.0 0.00 0.00 0.00 67 1020.0
20260830153557 87 350 4.0 6.0 0.00 0.00 0.00 67 1019.8
20260830153458 87 71 2.0 6.0 0.00 0.00 0.00 68 1019.8
20260830153358 87 327 3.0 6.0 0.00 0.00 0.00 68 1019.8
20260830153257 87 336 3.0 7.0 0.00 0.00 0.00 68 1019.8
20260830153156 87 360 4.0 8.0 0.00 0.00 0.00 67 1019.9
20260830153057 87 39 4.0 8.0 0.00 0.00 0.00 67 1019.7
20260830153001 87 13 3.0 9.0 0.00 0.00 0.00 67 1019.8
20260830152859 87 103 3.0 9.0 0.00 0.00 0.00 66 1019.8
20260830152758 88 65 3.0 9.0 0.00 0.00 0.00 67 1019.8
20260830152657 88 356 5.0 9.0 0.00 0.00 0.00 66 1019.9
20260830152558 88 6 5.0 9.0 0.00 0.00 0.00 65 1019.8
20260830152359 88 335 4.0 9.0 0.00 0.00 0.00 67 1019.7
20260830152258 88 24 6.0 9.0 0.00 0.00 0.00 68 1019.7
20260830152158 87 8 5.0 9.0 0.00 0.00 0.00 69 1019.7
20260830152059 87 355 4.0 9.0 0.00 0.00 0.00 68 1019.7
20260830152004 87 353 3.0 6.0 0.00 0.00 0.00 69 1019.7
20260830151858 87 39 3.0 6.0 0.00 0.00 0.00 69 1019.7
20260830151758 87 19 2.0 6.0 0.00 0.00 0.00 69 1019.7
20260830151557 86 18 4.0 6.0 0.00 0.00 0.00 69 1019.6
20260830151359 86 359 2.0 6.0 0.00 0.00 0.00 69 1019.7
20260830151259 86 111 5.0 6.0 0.00 0.00 0.00 70 1019.6
20260830151157 86 117 2.0 6.0 0.00 0.00 0.00 70 1019.7
20260830151059 86 103 3.0 6.0 0.00 0.00 0.00 70 1019.6
20260830151000 86 347 0.0 5.0 0.00 0.00 0.00 70 1019.7
20260830150857 86 108 5.0 5.0 0.00 0.00 0.00 71 1019.7
20260830150759 86 334 3.0 5.0 0.00 0.00 0.00 71 1019.7
20260830150659 86 4 4.0 5.0 0.00 0.00 0.00 71 1019.6
20260830150557 86 106 3.0 6.0 0.00 0.00 0.00 72 1019.6
20260830150500 86 19 0.0 6.0 0.00 0.00 0.00 72 1019.6
20260830150257 85 347 1.0 6.0 0.00 0.00 0.00 72 1019.6
20260830150158 85 335 0.0 6.0 0.00 0.00 0.00 73 1019.6
20260830150058 85 360 3.0 6.0 0.00 0.00 0.00 73 1019.7
20260830145857 85 354 4.0 6.0 0.00 0.00 0.00 73 1019.7
20260830145757 85 103 2.0 6.0 0.00 0.00 0.00 73 1019.6
20260830145657 85 317 4.0 6.0 0.00 0.00 0.00 74 1019.7
20260830145556 85 347 3.0 5.0 0.00 0.00 0.00 73 1019.6
20260830145458 85 36 1.0 5.0 0.00 0.00 0.00 74 1019.7
20260830145357 85 354 3.0 5.0 0.00 0.00 0.00 74 1019.6
20260830145257 85 111 0.0 5.0 0.00 0.00 0.00 74 1019.6
20260830145157 85 354 4.0 5.0 0.00 0.00 0.00 74 1019.5
20260830145056 85 32 2.0 5.0 0.00 0.00 0.00 74 1019.6
20260830145000 85 360 3.0 5.0 0.00 0.00 0.00 74 1019.5
20260830144857 85 354 2.0 5.0 0.00 0.00 0.00 74 1019.5
20260830144757 85 350 3.0 5.0 0.00 0.00 0.00 75 1019.6
20260830144658 84 6 3.0 5.0 0.00 0.00 0.00 76 1019.6
20260830144557 84 4 3.0 5.0 0.00 0.00 0.00 75 1019.6
20260830144458 84 15 2.0 4.0 0.00 0.00 0.00 75 1019.6
20260830144358 84 25 3.0 5.0 0.00 0.00 0.00 76 1019.6
20260830144257 84 34 2.0 5.0 0.00 0.00 0.00 75 1019.6
20260830144156 84 79 2.0 5.0 0.00 0.00 0.00 76 1019.5
20260830144056 84 333 2.0 5.0 0.00 0.00 0.00 77 1019.6
20260830143959 83 6 3.0 5.0 0.00 0.00 0.00 76 1019.6
20260830143857 83 345 0.0 5.0 0.00 0.00 0.00 76 1019.6
20260830143756 83 345 3.0 5.0 0.00 0.00 0.00 77 1019.7
20260830143657 83 340 2.0 5.0 0.00 0.00 0.00 77 1019.6
20260830143558 83 345 4.0 5.0 0.00 0.00 0.00 76 1019.7
20260830143458 83 129 3.0 4.0 0.00 0.00 0.00 76 1019.6
20260830143357 83 11 1.0 4.0 0.00 0.00 0.00 77 1019.7
20260830143256 83 331 2.0 4.0 0.00 0.00 0.00 76 1019.7
20260830143058 83 20 1.0 6.0 0.00 0.00 0.00 77 1019.7
20260830142959 82 345 3.0 6.0 0.00 0.00 0.00 77 1019.7
20260830142857 83 10 4.0 6.0 0.00 0.00 0.00 76 1019.7
20260830142756 83 297 0.0 6.0 0.00 0.00 0.00 76 1019.7
20260830142657 83 89 4.0 6.0 0.00 0.00 0.00 76 1019.7
20260830142556 83 46 0.0 6.0 0.00 0.00 0.00 76 1019.7
20260830142459 83 328 2.0 6.0 0.00 0.00 0.00 76 1019.7
20260830142258 83 3 5.0 5.0 0.00 0.00 0.00 77 1019.8
20260830142157 83 15 4.0 5.0 0.00 0.00 0.00 76 1019.7
20260830142000 83 355 3.0 4.0 0.00 0.00 0.00 76 1019.7
20260830141857 83 359 3.0 4.0 0.00 0.00 0.00 77 1019.8
20260830141757 83 323 2.0 4.0 0.00 0.00 0.00 77 1019.7
20260830141656 82 338 3.0 4.0 0.00 0.00 0.00 78 1019.7
20260830141556 82 43 1.0 4.0 0.00 0.00 0.00 79 1019.8
20260830141458 82 15 4.0 4.0 0.00 0.00 0.00 78 1019.7
20260830141257 81 342 2.0 4.0 0.00 0.00 0.00 79 1019.7
20260830141157 81 347 2.0 4.0 0.00 0.00 0.00 78 1019.7
20260830141057 81 352 2.0 4.0 0.00 0.00 0.00 78 1019.7
20260830140958 81 354 2.0 4.0 0.00 0.00 0.00 78 1019.7
20260830140857 81 311 0.0 4.0 0.00 0.00 0.00 78 1019.7
20260830140757 81 345 3.0 4.0 0.00 0.00 0.00 78 1019.7
20260830140657 81 1 1.0 4.0 0.00 0.00 0.00 78 1019.7
20260830140557 81 359 2.0 4.0 0.00 0.00 0.00 78 1019.7
20260830140157 81 103 1.0 4.0 0.00 0.00 0.00 79 1019.7
20260830140056 80 359 0.0 3.0 0.00 0.00 0.00 79 1019.7
20260830140002 80 328 0.0 3.0 0.00 0.00 0.00 79 1019.7
20260830135858 80 322 0.0 3.0 0.00 0.00 0.00 79 1019.7
20260830135757 80 341 0.0 3.0 0.00 0.00 0.00 79 1019.7
20260830135659 80 15 0.0 3.0 0.00 0.00 0.00 79 1019.7
20260830135559 80 352 1.0 3.0 0.00 0.00 0.00 79 1019.8
20260830135459 80 340 2.0 3.0 0.00 0.00 0.00 79 1019.8
20260830135358 80 4 2.0 4.0 0.00 0.00 0.00 79 1019.7
20260830135257 80 338 2.0 4.0 0.00 0.00 0.00 79 1019.8
20260830135159 80 268 0.0 4.0 0.00 0.00 0.00 80 1019.8
20260830135000 79 322 1.0 4.0 0.00 0.00 0.00 80 1019.8
20260830134758 79 334 2.0 4.0 0.00 0.00 0.00 80 1019.8
20260830134558 79 343 3.0 4.0 0.00 0.00 0.00 80 1019.8
20260830134459 80 326 1.0 4.0 0.00 0.00 0.00 80 1019.8
20260830134357 80 314 1.0 3.0 0.00 0.00 0.00 80 1019.8
20260830134158 80 340 0.0 3.0 0.00 0.00 0.00 80 1019.9
20260830134059 79 6 0.0 3.0 0.00 0.00 0.00 80 1019.8
20260830134001 79 11 2.0 3.0 0.00 0.00 0.00 81 1019.7
20260830133857 79 309 1.0 3.0 0.00 0.00 0.00 81 1019.7
20260830133800 79 289 0.0 3.0 0.00 0.00 0.00 80 1019.7
20260830133658 79 306 2.0 3.0 0.00 0.00 0.00 80 1019.7
20260830133557 79 282 1.0 3.0 0.00 0.00 0.00 80 1019.8
20260830133459 79 316 3.0 3.0 0.00 0.00 0.00 80 1019.8
20260830133358 79 326 2.0 3.0 0.00 0.00 0.00 80 1019.8
20260830133157 79 231 1.0 3.0 0.00 0.00 0.00 80 1019.7
20260830133059 79 341 1.0 3.0 0.00 0.00 0.00 80 1019.7
20260830132959 79 8 1.0 3.0 0.00 0.00 0.00 80 1019.7
20260830132858 79 350 2.0 3.0 0.00 0.00 0.00 80 1019.7
20260830132758 79 321 0.0 3.0 0.00 0.00 0.00 81 1019.7
20260830132659 79 317 0.0 3.0 0.00 0.00 0.00 80 1019.7
20260830132459 79 292 1.0 3.0 0.00 0.00 0.00 80 1019.6
20260830132358 79 286 0.0 3.0 0.00 0.00 0.00 80 1019.6
20260830132258 79 8 0.0 3.0 0.00 0.00 0.00 80 1019.6
20260830132003 79 281 1.0 3.0 0.00 0.00 0.00 80 1019.6
20260830131857 79 333 0.0 3.0 0.00 0.00 0.00 80 1019.6
20260830131758 79 341 0.0 3.0 0.00 0.00 0.00 80 1019.6
20260830131557 79 304 3.0 4.0 0.00 0.00 0.00 80 1019.6
20260830131459 80 359 1.0 4.0 0.00 0.00 0.00 79 1019.6
20260830131258 79 322 0.0 4.0 0.00 0.00 0.00 80 1019.6
20260830131158 79 345 0.0 4.0 0.00 0.00 0.00 80 1019.5
20260830131057 79 347 0.0 4.0 0.00 0.00 0.00 80 1019.5
20260830131002 79 162 1.0 4.0 0.00 0.00 0.00 80 1019.6
20260830130858 79 360 3.0 4.0 0.00 0.00 0.00 80 1019.5
20260830130658 79 155 0.0 3.0 0.00 0.00 0.00 80 1019.6
20260830130558 79 181 1.0 3.0 0.00 0.00 0.00 81 1019.6
20260830130459 79 6 0.0 3.0 0.00 0.00 0.00 81 1019.5
20260830130357 79 143 0.0 3.0 0.00 0.00 0.00 81 1019.6
20260830130259 78 205 0.0 3.0 0.00 0.00 0.00 82 1019.6
20260830130157 78 205 1.0 3.0 0.00 0.00 0.00 82 1019.6
20260830130059 78 300 1.0 4.0 0.00 0.00 0.00 82 1019.6
20260830130000 78 317 0.0 4.0 0.00 0.00 0.00 82 1019.7
20260830125757 78 279 1.0 4.0 0.00 0.00 0.00 83 1019.7
20260830125657 78 294 2.0 4.0 0.00 0.00 0.00 83 1019.7
20260830125556 78 321 0.0 4.0 0.00 0.00 0.00 83 1019.7
20260830125458 77 316 2.0 4.0 0.00 0.00 0.00 84 1019.6
20260830125256 77 214 0.0 4.0 0.00 0.00 0.00 83 1019.7
20260830125158 77 137 4.0 4.0 0.00 0.00 0.00 84 1019.6
20260830125057 77 155 0.0 3.0 0.00 0.00 0.00 84 1019.6
20260830125000 77 239 0.0 3.0 0.00 0.00 0.00 84 1019.6
20260830124857 77 80 1.0 3.0 0.00 0.00 0.00 84 1019.7
20260830124657 77 264 1.0 3.0 0.00 0.00 0.00 85 1019.6
20260830124558 77 340 2.0 3.0 0.00 0.00 0.00 86 1019.6
20260830124458 77 319 0.0 3.0 0.00 0.00 0.00 86 1019.6
20260830124357 77 157 0.0 3.0 0.00 0.00 0.00 86 1019.5
20260830124258 76 335 0.0 3.0 0.00 0.00 0.00 86 1019.5
20260830124156 76 284 0.0 3.0 0.00 0.00 0.00 87 1019.5
20260830123959 76 323 0.0 3.0 0.00 0.00 0.00 87 1019.4
20260830123857 76 115 0.0 4.0 0.00 0.00 0.00 87 1019.4
20260830123757 76 10 2.0 4.0 0.00 0.00 0.00 88 1019.5
20260830123657 76 261 2.0 4.0 0.00 0.00 0.00 88 1019.5
20260830123458 76 172 0.0 4.0 0.00 0.00 0.00 88 1019.4
20260830123256 75 287 0.0 4.0 0.00 0.00 0.00 89 1019.4
20260830123157 75 300 2.0 4.0 0.00 0.00 0.00 89 1019.4
20260830123056 75 294 1.0 4.0 0.00 0.00 0.00 89 1019.4
20260830123000 75 278 3.0 4.0 0.00 0.00 0.00 89 1019.4
20260830122858 75 39 0.0 4.0 0.00 0.00 0.00 90 1019.4
20260830122756 75 69 0.0 4.0 0.00 0.00 0.00 90 1019.4
20260830122657 75 324 1.0 4.0 0.00 0.00 0.00 90 1019.4
20260830122556 75 239 2.0 4.0 0.00 0.00 0.00 90 1019.3
20260830122458 75 307 2.0 4.0 0.00 0.00 0.00 90 1019.3
20260830122357 75 338 2.0 4.0 0.00 0.00 0.00 91 1019.3
20260830122258 75 360 3.0 4.0 0.00 0.00 0.00 91 1019.3
20260830122157 75 124 3.0 4.0 0.00 0.00 0.00 91 1019.2
20260830122056 75 324 2.0 4.0 0.00 0.00 0.00 91 1019.2
20260830122000 74 342 1.0 4.0 0.00 0.00 0.00 91 1019.2
20260830121857 74 328 1.0 4.0 0.00 0.00 0.00 91 1019.1
20260830121756 74 17 2.0 4.0 0.00 0.00 0.00 91 1019.2
20260830121656 74 33 0.0 4.0 0.00 0.00 0.00 91 1019.1
20260830121557 74 317 0.0 4.0 0.00 0.00 0.00 91 1019.2
20260830121459 74 29 0.0 4.0 0.00 0.00 0.00 92 1019.1
20260830121357 74 45 4.0 4.0 0.00 0.00 0.00 92 1019.1
20260830121257 74 344 1.0 3.0 0.00 0.00 0.00 92 1019.0
20260830121158 74 323 2.0 3.0 0.00 0.00 0.00 92 1019.0
20260830121056 74 20 2.0 3.0 0.00 0.00 0.00 92 1019.0
20260830120657 73 352 0.0 3.0 0.00 0.00 0.00 92 1019.0
20260830120556 73 338 0.0 3.0 0.00 0.00 0.00 92 1018.9
20260830120458 73 34 2.0 3.0 0.00 0.00 0.00 92 1018.9
20260830120357 73 34 2.0 3.0 0.00 0.00 0.00 92 1018.9
20260830120257 73 43 0.0 3.0 0.00 0.00 0.00 92 1018.9
20260830120158 73 22 0.0 3.0 0.00 0.00 0.00 92 1018.9
20260830120057 73 284 0.0 3.0 0.00 0.00 0.00 92 1018.9
20260830115958 73 77 0.0 3.0 0.00 0.00 0.00 92 1018.9
20260830115856 73 122 2.0 3.0 0.00 0.00 0.00 92 1018.9
20260830115755 73 30 2.0 3.0 0.00 0.00 0.00 92 1018.8
20260830115655 73 54 1.0 3.0 0.00 0.00 0.00 92 1018.8
20260830115554 73 13 0.0 3.0 0.00 0.00 0.00 92 1018.8
20260830115458 73 47 0.0 3.0 0.00 0.00 0.00 92 1018.8
20260830115355 73 11 0.0 3.0 0.00 0.00 0.00 92 1018.8
20260830115256 73 143 0.0 3.0 0.00 0.00 0.00 92 1018.8
20260830115155 73 56 0.0 3.0 0.00 0.00 0.00 92 1018.8
20260830115055 73 56 0.0 3.0 0.00 0.00 0.00 92 1018.8
20260830114959 73 17 0.0 4.0 0.00 0.00 0.00 92 1018.8
20260830114756 73 26 0.0 4.0 0.00 0.00 0.00 92 1018.8
20260830114656 73 26 0.0 4.0 0.00 0.00 0.00 92 1018.8
20260830114555 73 15 1.0 4.0 0.00 0.00 0.00 92 1018.8
20260830114457 73 57 0.0 5.0 0.00 0.00 0.00 92 1018.8
20260830114355 73 46 0.0 5.0 0.00 0.00 0.00 92 1018.7
20260830114055 73 53 1.0 5.0 0.00 0.00 0.00 92 1018.7
20260830113958 73 89 0.0 5.0 0.00 0.00 0.00 92 1018.8
20260830113856 73 57 0.0 5.0 0.00 0.00 0.00 92 1018.7
20260830113755 73 40 0.0 5.0 0.00 0.00 0.00 92 1018.6
20260830113655 73 134 2.0 5.0 0.00 0.00 0.00 92 1018.7
20260830113556 73 76 2.0 3.0 0.00 0.00 0.00 92 1018.7
20260830113355 73 333 0.0 3.0 0.00 0.00 0.00 92 1018.7
20260830113255 73 92 2.0 3.0 0.00 0.00 0.00 92 1018.7
20260830113156 73 15 2.0 3.0 0.00 0.00 0.00 92 1018.7
20260830113056 73 34 1.0 3.0 0.00 0.00 0.00 92 1018.7
20260830112958 73 43 0.0 3.0 0.00 0.00 0.00 92 1018.7
20260830112855 73 346 0.0 3.0 0.00 0.00 0.00 92 1018.6
20260830112757 73 36 1.0 3.0 0.00 0.00 0.00 92 1018.6
20260830112655 73 64 0.0 2.0 0.00 0.00 0.00 92 1018.5
20260830112556 73 333 0.0 2.0 0.00 0.00 0.00 92 1018.7
20260830112457 73 356 0.0 2.0 0.00 0.00 0.00 92 1018.6
20260830112356 73 1 1.0 2.0 0.00 0.00 0.00 92 1018.6
20260830112256 73 338 0.0 2.0 0.00 0.00 0.00 92 1018.6
20260830112157 73 44 0.0 2.0 0.00 0.00 0.00 92 1018.6
20260830112055 73 351 2.0 2.0 0.00 0.00 0.00 92 1018.6
20260830111958 73 45 0.0 2.0 0.00 0.00 0.00 92 1018.6
20260830111856 73 18 0.0 2.0 0.00 0.00 0.00 92 1018.5
20260830111755 73 338 0.0 2.0 0.00 0.00 0.00 92 1018.6
20260830111556 73 15 2.0 2.0 0.00 0.00 0.00 92 1018.6
20260830111356 73 340 0.0 2.0 0.00 0.00 0.00 92 1018.5
20260830111156 73 349 0.0 2.0 0.00 0.00 0.00 92 1018.5
20260830111058 73 342 0.0 2.0 0.00 0.00 0.00 92 1018.5
20260830110959 73 15 0.0 2.0 0.00 0.00 0.00 92 1018.5
20260830110855 73 3 0.0 2.0 0.00 0.00 0.00 92 1018.5
20260830110756 73 29 2.0 2.0 0.00 0.00 0.00 92 1018.4
20260830110655 73 25 0.0 2.0 0.00 0.00 0.00 92 1018.4
20260830110456 73 354 0.0 2.0 0.00 0.00 0.00 91 1018.4
20260830110357 73 358 0.0 2.0 0.00 0.00 0.00 92 1018.4
20260830110255 73 20 0.0 2.0 0.00 0.00 0.00 92 1018.4
20260830110056 73 360 0.0 2.0 0.00 0.00 0.00 92 1018.4
20260830105958 73 10 0.0 2.0 0.00 0.00 0.00 92 1018.5
20260830105856 73 340 0.0 2.0 0.00 0.00 0.00 91 1018.4
20260830105755 73 360 0.0 2.0 0.00 0.00 0.00 91 1018.4
20260830105656 73 338 0.0 2.0 0.00 0.00 0.00 91 1018.3
20260830105556 73 344 1.0 2.0 0.00 0.00 0.00 91 1018.4
20260830105457 73 18 0.0 2.0 0.00 0.00 0.00 91 1018.3
20260830105357 73 18 2.0 2.0 0.00 0.00 0.00 91 1018.4
20260830105256 73 43 0.0 2.0 0.00 0.00 0.00 91 1018.3
20260830105156 73 36 0.0 2.0 0.00 0.00 0.00 91 1018.3
20260830105055 73 328 0.0 3.0 0.00 0.00 0.00 91 1018.3
20260830104856 73 25 0.0 3.0 0.00 0.00 0.00 91 1018.3
20260830104756 73 331 0.0 3.0 0.00 0.00 0.00 91 1018.2
20260830104655 73 331 0.0 3.0 0.00 0.00 0.00 91 1018.2
20260830104456 73 6 0.0 3.0 0.00 0.00 0.00 91 1018.1
20260830104354 73 50 0.0 3.0 0.00 0.00 0.00 91 1018.2
20260830104256 73 349 1.0 3.0 0.00 0.00 0.00 91 1018.1
20260830104155 73 326 0.0 3.0 0.00 0.00 0.00 91 1018.1
20260830103958 73 326 0.0 3.0 0.00 0.00 0.00 91 1018.0
20260830103856 73 6 1.0 2.0 0.00 0.00 0.00 91 1018.0
20260830103755 73 333 0.0 2.0 0.00 0.00 0.00 91 1018.0
20260830103656 73 342 0.0 2.0 0.00 0.00 0.00 91 1018.0
20260830103555 73 31 0.0 2.0 0.00 0.00 0.00 91 1018.0
20260830103456 73 58 1.0 2.0 0.00 0.00 0.00 91 1018.1
20260830103356 73 6 1.0 2.0 0.00 0.00 0.00 91 1018.1
20260830103155 73 8 2.0 3.0 0.00 0.00 0.00 91 1018.1
20260830103055 73 328 0.0 3.0 0.00 0.00 0.00 91 1018.1
20260830102958 73 356 0.0 3.0 0.00 0.00 0.00 91 1018.1
20260830102756 73 15 0.0 3.0 0.00 0.00 0.00 91 1018.1
20260830102656 73 8 0.0 3.0 0.00 0.00 0.00 91 1018.0
20260830102555 73 338 1.0 3.0 0.00 0.00 0.00 91 1018.1
20260830102456 73 330 0.0 3.0 0.00 0.00 0.00 91 1018.0
20260830102355 73 23 0.0 3.0 0.00 0.00 0.00 91 1018.0
20260830102255 73 8 0.0 3.0 0.00 0.00 0.00 91 1018.0
20260830102156 73 4 0.0 3.0 0.00 0.00 0.00 90 1018.1
20260830102056 73 353 0.0 3.0 0.00 0.00 0.00 91 1018.0
20260830101958 73 25 0.0 3.0 0.00 0.00 0.00 91 1018.0
20260830101855 73 11 1.0 3.0 0.00 0.00 0.00 90 1018.0
20260830101755 73 32 0.0 3.0 0.00 0.00 0.00 90 1018.0
20260830101655 73 6 0.0 3.0 0.00 0.00 0.00 91 1018.0
20260830101355 73 333 0.0 3.0 0.00 0.00 0.00 90 1018.0
20260830101255 73 15 0.0 3.0 0.00 0.00 0.00 90 1017.9
20260830101156 73 51 1.0 3.0 0.00 0.00 0.00 90 1018.0
20260830101055 73 314 0.0 3.0 0.00 0.00 0.00 90 1018.0
20260830100957 73 314 0.0 3.0 0.00 0.00 0.00 90 1018.1
20260830100855 73 338 0.0 3.0 0.00 0.00 0.00 90 1018.1
20260830100757 73 106 0.0 3.0 0.00 0.00 0.00 90 1018.1
20260830100655 73 17 0.0 3.0 0.00 0.00 0.00 90 1018.1
20260830100557 73 32 0.0 3.0 0.00 0.00 0.00 90 1018.1
20260830100356 73 15 0.0 3.0 0.00 0.00 0.00 90 1018.1
20260830100256 74 338 0.0 3.0 0.00 0.00 0.00 90 1018.2
20260830100156 74 29 0.0 3.0 0.00 0.00 0.00 90 1018.1
20260830095856 74 305 0.0 3.0 0.00 0.00 0.00 90 1018.1
20260830095756 74 330 0.0 3.0 0.00 0.00 0.00 90 1018.2
20260830095555 74 359 0.0 3.0 0.00 0.00 0.00 90 1018.1
20260830095459 74 281 0.0 3.0 0.00 0.00 0.00 90 1018.1
20260830095356 74 15 2.0 3.0 0.00 0.00 0.00 90 1018.2
20260830095256 74 18 0.0 3.0 0.00 0.00 0.00 90 1018.1
20260830095157 74 26 0.0 3.0 0.00 0.00 0.00 90 1018.2
20260830095057 74 6 2.0 3.0 0.00 0.00 0.00 90 1018.2
20260830094959 74 19 0.0 3.0 0.00 0.00 0.00 90 1018.1
20260830094858 74 53 1.0 3.0 0.00 0.00 0.00 90 1018.1
20260830094758 74 330 0.0 3.0 0.00 0.00 0.00 90 1018.1
20260830094556 74 338 0.0 3.0 0.00 0.00 0.00 90 1018.1
20260830094458 74 27 0.0 3.0 0.00 0.00 0.00 90 1018.0
20260830094356 74 355 0.0 4.0 0.00 0.00 0.00 90 1018.1
20260830094257 74 20 0.0 4.0 0.00 0.00 0.00 90 1018.0
20260830094156 74 20 1.0 4.0 0.00 0.00 0.00 90 1018.0
20260830094056 74 1 2.0 4.0 0.00 0.00 0.00 90 1018.0
20260830093856 74 359 0.0 4.0 0.00 0.00 0.00 90 1018.0
20260830093658 74 38 0.0 4.0 0.00 0.00 0.00 90 1017.9
20260830093556 74 8 2.0 4.0 0.00 0.00 0.00 90 1017.9
20260830093458 74 78 3.0 4.0 0.00 0.00 0.00 90 1017.9
20260830093357 74 20 0.0 4.0 0.00 0.00 0.00 90 1017.9
20260830093157 74 37 1.0 3.0 0.00 0.00 0.00 90 1017.8
20260830092959 74 15 0.0 4.0 0.00 0.00 0.00 90 1018.0
20260830092857 74 17 2.0 4.0 0.00 0.00 0.00 90 1018.0
20260830092757 74 33 0.0 4.0 0.00 0.00 0.00 90 1017.8
20260830092657 74 19 1.0 4.0 0.00 0.00 0.00 90 1017.9
20260830092458 74 15 2.0 4.0 0.00 0.00 0.00 90 1017.9
20260830092357 74 41 0.0 4.0 0.00 0.00 0.00 90 1017.9
20260830092256 74 20 0.0 4.0 0.00 0.00 0.00 90 1017.9
20260830091958 74 360 4.0 4.0 0.00 0.00 0.00 90 1018.0
20260830091857 74 40 2.0 4.0 0.00 0.00 0.00 90 1018.0
20260830091756 74 66 3.0 4.0 0.00 0.00 0.00 90 1017.9
20260830091656 74 18 0.0 4.0 0.00 0.00 0.00 90 1017.9
20260830091458 74 295 0.0 4.0 0.00 0.00 0.00 90 1017.9
20260830091258 74 8 0.0 4.0 0.00 0.00 0.00 90 1017.9
20260830091156 74 8 2.0 4.0 0.00 0.00 0.00 90 1017.9
20260830091056 74 52 0.0 4.0 0.00 0.00 0.00 90 1017.9
20260830090959 74 326 0.0 4.0 0.00 0.00 0.00 90 1017.9
20260830090857 74 52 0.0 4.0 0.00 0.00 0.00 90 1017.9
20260830090757 74 67 2.0 4.0 0.00 0.00 0.00 90 1017.9
20260830090657 74 109 0.0 4.0 0.00 0.00 0.00 90 1017.9
20260830090558 74 67 0.0 5.0 0.00 0.00 0.00 89 1017.9
20260830090458 74 96 3.0 5.0 0.00 0.00 0.00 90 1017.9
20260830090356 74 335 0.0 5.0 0.00 0.00 0.00 89 1017.9
20260830090157 74 71 3.0 5.0 0.00 0.00 0.00 89 1017.9
20260830090057 74 354 0.0 5.0 0.00 0.00 0.00 89 1017.8
20260830085958 74 37 2.0 5.0 0.00 0.00 0.00 89 1017.8
20260830085856 74 340 1.0 5.0 0.00 0.00 0.00 89 1017.9
20260830085755 74 353 0.0 5.0 0.00 0.00 0.00 89 1017.7
20260830085655 74 34 0.0 4.0 0.00 0.00 0.00 89 1017.8
20260830085555 74 18 0.0 4.0 0.00 0.00 0.00 89 1017.8
20260830085457 74 51 0.0 4.0 0.00 0.00 0.00 89 1017.8
20260830085355 74 321 1.0 4.0 0.00 0.00 0.00 89 1017.7